Time,TemperatureF,DewpointF,PressureIn,WindDirection,WindDirectionDegrees,WindSpeedMPH,WindSpeedGustMPH,Humidity,HourlyPrecipIn,Conditions,Clouds,dailyrainin,SoftwareType,DateUTC
2013-01-20 00:01:00,43.5,37.1,30.21,West,278,0.0,2.0,78,0.00,,---,0.00,VWS V14.01,2013-01-20 06:01:00,
2013-01-20 00:04:00,43.5,37.1,30.21,West,278,0.0,1.0,78,0.00,,---,0.00,VWS V14.01,2013-01-20 06:04:00,
2013-01-20 00:06:00,43.5,37.1,30.21,West,279,0.0,1.0,78,0.00,,---,0.00,VWS V14.01,2013-01-20 06:06:00,
2013-01-20 00:07:00,43.4,37.0,30.21,West,278,0.0,1.0,78,0.00,,---,0.00,VWS V14.01,2013-01-20 06:07:00,
2013-01-20 00:09:00,43.3,36.9,30.21,West,262,0.0,1.0,78,0.00,,---,0.00,VWS V14.01,2013-01-20 06:09:00,
2013-01-20 00:11:00,43.3,36.9,30.21,WSW,255,2.0,3.0,78,0.00,,---,0.00,VWS V14.01,2013-01-20 06:11:00,
2013-01-20 00:12:00,43.3,36.9,30.21,WSW,255,0.0,3.0,78,0.00,,---,0.00,VWS V14.01,2013-01-20 06:12:00,
2013-01-20 00:14:00,43.2,36.8,30.21,WSW,255,0.0,3.0,78,0.00,,---,0.00,VWS V14.01,2013-01-20 06:14:00,
2013-01-20 00:16:00,43.1,36.7,30.21,WSW,255,0.0,0.0,78,0.00,,---,0.00,VWS V14.01,2013-01-20 06:16:00,
2013-01-20 00:17:00,43.1,36.7,30.21,WSW,255,0.0,0.0,78,0.00,,---,0.00,VWS V14.01,2013-01-20 06:17:00,
2013-01-20 00:19:00,43.0,36.9,30.20,WSW,255,0.0,0.0,79,0.00,,---,0.00,VWS V14.01,2013-01-20 06:19:00,
2013-01-20 00:21:00,43.0,36.9,30.20,WSW,255,0.0,1.0,79,0.00,,---,0.00,VWS V14.01,2013-01-20 06:21:00,
2013-01-20 00:22:00,43.0,36.9,30.20,WSW,255,0.0,1.0,79,0.00,,---,0.00,VWS V14.01,2013-01-20 06:22:00,
2013-01-20 00:24:00,42.9,36.8,30.20,WSW,255,0.0,1.0,79,0.00,,---,0.00,VWS V14.01,2013-01-20 06:24:00,
2013-01-20 00:26:00,42.9,36.8,30.20,WSW,255,0.0,1.0,79,0.00,,---,0.00,VWS V14.01,2013-01-20 06:26:00,
2013-01-20 00:27:00,43.0,36.9,30.20,WSW,254,1.0,1.0,79,0.00,,---,0.00,VWS V14.01,2013-01-20 06:27:00,
2013-01-20 00:30:00,43.1,37.0,30.20,West,265,0.0,2.0,79,0.00,,---,0.00,VWS V14.01,2013-01-20 06:30:00,
2013-01-20 00:32:00,43.1,37.0,30.20,West,270,0.0,2.0,79,0.00,,---,0.00,VWS V14.01,2013-01-20 06:32:00,
2013-01-20 00:33:00,43.1,37.0,30.20,West,270,0.0,2.0,79,0.00,,---,0.00,VWS V14.01,2013-01-20 06:33:00,
2013-01-20 00:35:00,43.1,36.7,30.20,West,270,1.0,2.0,78,0.00,,---,0.00,VWS V14.01,2013-01-20 06:35:00,
2013-01-20 00:37:00,43.2,36.8,30.20,West,271,0.0,2.0,78,0.00,,---,0.00,VWS V14.01,2013-01-20 06:37:00,
2013-01-20 00:38:00,43.2,36.8,30.20,West,271,1.0,2.0,78,0.00,,---,0.00,VWS V14.01,2013-01-20 06:38:00,
2013-01-20 00:40:00,43.3,36.9,30.20,WNW,285,1.0,3.0,78,0.00,,---,0.00,VWS V14.01,2013-01-20 06:40:00,
2013-01-20 00:42:00,43.3,36.9,30.20,WNW,284,0.0,3.0,78,0.00,,---,0.00,VWS V14.01,2013-01-20 06:42:00,
2013-01-20 00:43:00,43.4,37.0,30.20,WNW,284,0.0,3.0,78,0.00,,---,0.00,VWS V14.01,2013-01-20 06:43:00,
2013-01-20 00:45:00,43.4,37.0,30.20,WNW,284,0.0,3.0,78,0.00,,---,0.00,VWS V14.01,2013-01-20 06:45:00,
2013-01-20 00:47:00,43.4,37.0,30.20,West,273,0.0,2.0,78,0.00,,---,0.00,VWS V14.01,2013-01-20 06:47:00,
2013-01-20 00:48:00,43.4,37.0,30.20,West,273,0.0,2.0,78,0.00,,---,0.00,VWS V14.01,2013-01-20 06:48:00,
2013-01-20 00:50:00,43.3,36.9,30.20,West,273,0.0,2.0,78,0.00,,---,0.00,VWS V14.01,2013-01-20 06:50:00,
2013-01-20 00:52:00,43.3,36.9,30.20,West,273,0.0,2.0,78,0.00,,---,0.00,VWS V14.01,2013-01-20 06:52:00,
2013-01-20 00:53:00,43.3,36.9,30.20,West,273,0.0,2.0,78,0.00,,---,0.00,VWS V14.01,2013-01-20 06:53:00,
2013-01-20 00:55:00,43.2,36.8,30.20,West,273,0.0,2.0,78,0.00,,---,0.00,VWS V14.01,2013-01-20 06:55:00,
2013-01-20 00:57:00,43.2,36.8,30.20,West,273,0.0,2.0,78,0.00,,---,0.00,VWS V14.01,2013-01-20 06:57:00,
2013-01-20 00:58:00,43.2,36.8,30.20,West,273,0.0,2.0,78,0.00,,---,0.00,VWS V14.01,2013-01-20 06:58:00,
2013-01-20 01:00:00,43.2,36.8,30.20,West,273,0.0,2.0,78,0.00,,---,0.00,VWS V14.01,2013-01-20 07:00:00,
2013-01-20 01:02:00,43.1,36.7,30.20,West,273,0.0,0.0,78,0.00,,---,0.00,VWS V14.01,2013-01-20 07:02:00,
2013-01-20 01:04:00,43.1,36.7,30.20,West,273,0.0,0.0,78,0.00,,---,0.00,VWS V14.01,2013-01-20 07:04:00,
2013-01-20 01:05:00,43.1,36.7,30.20,West,273,0.0,0.0,78,0.00,,---,0.00,VWS V14.01,2013-01-20 07:05:00,
2013-01-20 01:07:00,43.0,36.6,30.20,West,273,0.0,0.0,78,0.00,,---,0.00,VWS V14.01,2013-01-20 07:07:00,
2013-01-20 01:09:00,42.9,36.5,30.20,West,273,0.0,0.0,78,0.00,,---,0.00,VWS V14.01,2013-01-20 07:09:00,
2013-01-20 01:11:00,42.9,36.5,30.20,West,271,0.0,0.0,78,0.00,,---,0.00,VWS V14.01,2013-01-20 07:11:00,
2013-01-20 01:12:00,42.8,36.4,30.20,West,271,0.0,0.0,78,0.00,,---,0.00,VWS V14.01,2013-01-20 07:12:00,
2013-01-20 01:14:00,42.8,36.4,30.20,West,261,0.0,0.0,78,0.00,,---,0.00,VWS V14.01,2013-01-20 07:14:00,
2013-01-20 01:16:00,42.7,36.3,30.20,West,261,0.0,0.0,78,0.00,,---,0.00,VWS V14.01,2013-01-20 07:16:00,
2013-01-20 01:17:00,42.7,36.7,30.21,West,260,0.0,0.0,79,0.00,,---,0.00,VWS V14.01,2013-01-20 07:17:00,
2013-01-20 01:18:00,42.7,36.7,30.21,West,259,0.0,0.0,79,0.00,,---,0.00,VWS V14.01,2013-01-20 07:18:00,
2013-01-20 01:19:00,42.6,36.5,30.21,West,259,0.0,1.0,79,0.00,,---,0.00,VWS V14.01,2013-01-20 07:19:00,
2013-01-20 01:21:00,42.6,36.5,30.20,West,259,0.0,1.0,79,0.00,,---,0.00,VWS V14.01,2013-01-20 07:21:00,
2013-01-20 01:22:00,42.6,36.5,30.20,West,261,0.0,1.0,79,0.00,,---,0.00,VWS V14.01,2013-01-20 07:22:00,
2013-01-20 01:23:00,42.5,36.5,30.21,West,260,0.0,1.0,79,0.00,,---,0.00,VWS V14.01,2013-01-20 07:23:00,
2013-01-20 01:24:00,42.5,36.5,30.20,West,261,0.0,1.0,79,0.00,,---,0.00,VWS V14.01,2013-01-20 07:24:00,
2013-01-20 01:26:00,42.5,36.5,30.20,West,261,0.0,1.0,79,0.00,,---,0.00,VWS V14.01,2013-01-20 07:26:00,
2013-01-20 01:27:00,42.5,36.5,30.20,West,261,0.0,1.0,79,0.00,,---,0.00,VWS V14.01,2013-01-20 07:27:00,
2013-01-20 01:28:00,42.5,36.5,30.20,West,261,0.0,1.0,79,0.00,,---,0.00,VWS V14.01,2013-01-20 07:28:00,
2013-01-20 01:29:00,42.5,36.5,30.20,West,261,0.0,1.0,79,0.00,,---,0.00,VWS V14.01,2013-01-20 07:29:00,
2013-01-20 01:31:00,42.5,36.5,30.21,West,260,0.0,0.0,79,0.00,,---,0.00,VWS V14.01,2013-01-20 07:31:00,
2013-01-20 01:32:00,42.5,36.5,30.21,West,278,0.0,1.0,79,0.00,,---,0.00,VWS V14.01,2013-01-20 07:32:00,
2013-01-20 01:33:00,42.5,36.5,30.21,West,277,0.0,1.0,79,0.00,,---,0.00,VWS V14.01,2013-01-20 07:33:00,
2013-01-20 01:34:00,42.5,36.1,30.21,West,277,0.0,1.0,78,0.00,,---,0.00,VWS V14.01,2013-01-20 07:34:00,
2013-01-20 01:36:00,42.6,36.2,30.21,West,278,0.0,1.0,78,0.00,,---,0.00,VWS V14.01,2013-01-20 07:36:00,
2013-01-20 01:37:00,42.6,36.2,30.21,West,267,0.0,1.0,78,0.00,,---,0.00,VWS V14.01,2013-01-20 07:37:00,
2013-01-20 01:38:00,42.7,36.3,30.21,West,268,0.0,1.0,78,0.00,,---,0.00,VWS V14.01,2013-01-20 07:38:00,
2013-01-20 01:39:00,42.7,36.3,30.21,West,267,0.0,1.0,78,0.00,,---,0.00,VWS V14.01,2013-01-20 07:39:00,
2013-01-20 01:41:00,42.6,36.2,30.21,West,267,1.0,1.0,78,0.00,,---,0.00,VWS V14.01,2013-01-20 07:41:00,
2013-01-20 01:42:00,42.6,36.2,30.20,West,268,0.0,1.0,78,0.00,,---,0.00,VWS V14.01,2013-01-20 07:42:00,
2013-01-20 01:43:00,42.6,36.2,30.20,West,267,0.0,1.0,78,0.00,,---,0.00,VWS V14.01,2013-01-20 07:43:00,
2013-01-20 01:45:00,42.6,36.2,30.21,West,267,0.0,1.0,78,0.00,,---,0.00,VWS V14.01,2013-01-20 07:45:00,
2013-01-20 01:46:00,42.6,36.2,30.21,West,268,0.0,0.0,78,0.00,,---,0.00,VWS V14.01,2013-01-20 07:46:00,
2013-01-20 01:48:00,42.5,36.1,30.21,West,268,0.0,0.0,78,0.00,,---,0.00,VWS V14.01,2013-01-20 07:48:00,
2013-01-20 01:50:00,42.5,36.1,30.21,West,267,0.0,0.0,78,0.00,,---,0.00,VWS V14.01,2013-01-20 07:50:00,
2013-01-20 01:51:00,42.5,36.1,30.21,West,268,0.0,0.0,78,0.00,,---,0.00,VWS V14.01,2013-01-20 07:51:00,
2013-01-20 01:53:00,42.4,36.0,30.21,West,268,0.0,0.0,78,0.00,,---,0.00,VWS V14.01,2013-01-20 07:53:00,
2013-01-20 01:55:00,42.3,36.3,30.21,West,268,0.0,0.0,79,0.00,,---,0.00,VWS V14.01,2013-01-20 07:55:00,
2013-01-20 01:56:00,42.3,36.3,30.21,West,268,0.0,0.0,79,0.00,,---,0.00,VWS V14.01,2013-01-20 07:56:00,
2013-01-20 01:58:00,42.3,36.3,30.21,West,268,0.0,0.0,79,0.00,,---,0.00,VWS V14.01,2013-01-20 07:58:00,
2013-01-20 01:59:00,42.3,35.9,30.21,West,267,0.0,0.0,78,0.00,,---,0.00,VWS V14.01,2013-01-20 07:59:00,
2013-01-20 02:00:00,42.2,36.2,30.21,West,268,0.0,0.0,79,0.00,,---,0.00,VWS V14.01,2013-01-20 08:00:00,
2013-01-20 02:01:00,42.2,36.2,30.21,West,268,0.0,0.0,79,0.00,,---,0.00,VWS V14.01,2013-01-20 08:01:00,
2013-01-20 02:03:00,42.2,36.2,30.21,West,268,0.0,0.0,79,0.00,,---,0.00,VWS V14.01,2013-01-20 08:03:00,
2013-01-20 02:04:00,42.1,36.1,30.21,West,268,0.0,0.0,79,0.00,,---,0.00,VWS V14.01,2013-01-20 08:04:00,
2013-01-20 02:06:00,42.1,36.1,30.21,West,268,0.0,1.0,79,0.00,,---,0.00,VWS V14.01,2013-01-20 08:06:00,
2013-01-20 02:08:00,42.1,36.1,30.21,SW,233,0.0,2.0,79,0.00,,---,0.00,VWS V14.01,2013-01-20 08:08:00,
2013-01-20 02:09:00,42.1,36.1,30.21,SW,234,0.0,2.0,79,0.00,,---,0.00,VWS V14.01,2013-01-20 08:09:00,
2013-01-20 02:11:00,42.1,36.1,30.21,SW,233,0.0,2.0,79,0.00,,---,0.00,VWS V14.01,2013-01-20 08:11:00,
2013-01-20 02:13:00,42.0,36.0,30.21,SW,233,0.0,2.0,79,0.00,,---,0.00,VWS V14.01,2013-01-20 08:13:00,
2013-01-20 02:14:00,42.0,36.0,30.21,SW,233,0.0,2.0,79,0.00,,---,0.00,VWS V14.01,2013-01-20 08:14:00,
2013-01-20 02:16:00,42.0,36.0,30.21,SW,234,0.0,0.0,79,0.00,,---,0.00,VWS V14.01,2013-01-20 08:16:00,
2013-01-20 02:17:00,42.0,36.0,30.21,SW,233,0.0,0.0,79,0.00,,---,0.00,VWS V14.01,2013-01-20 08:17:00,
2013-01-20 02:18:00,42.0,36.0,30.21,SW,234,0.0,0.0,79,0.00,,---,0.00,VWS V14.01,2013-01-20 08:18:00,
2013-01-20 02:19:00,42.0,36.0,30.21,SW,233,0.0,0.0,79,0.00,,---,0.00,VWS V14.01,2013-01-20 08:19:00,
2013-01-20 02:21:00,42.0,36.0,30.21,SW,233,0.0,1.0,79,0.00,,---,0.00,VWS V14.01,2013-01-20 08:21:00,
2013-01-20 02:22:00,42.1,36.1,30.21,SW,233,0.0,1.0,79,0.00,,---,0.00,VWS V14.01,2013-01-20 08:22:00,
2013-01-20 02:23:00,42.1,36.1,30.21,SW,233,0.0,1.0,79,0.00,,---,0.00,VWS V14.01,2013-01-20 08:23:00,
2013-01-20 02:24:00,42.1,36.1,30.21,SW,233,0.0,1.0,79,0.00,,---,0.00,VWS V14.01,2013-01-20 08:24:00,
2013-01-20 02:26:00,42.0,36.0,30.21,SW,233,0.0,1.0,79,0.00,,---,0.00,VWS V14.01,2013-01-20 08:26:00,
2013-01-20 02:27:00,42.0,36.0,30.21,SW,233,0.0,1.0,79,0.00,,---,0.00,VWS V14.01,2013-01-20 08:27:00,
2013-01-20 02:28:00,42.0,36.0,30.21,SW,234,0.0,1.0,79,0.00,,---,0.00,VWS V14.01,2013-01-20 08:28:00,
2013-01-20 02:29:00,42.0,36.0,30.21,SW,233,0.0,1.0,79,0.00,,---,0.00,VWS V14.01,2013-01-20 08:29:00,
2013-01-20 02:32:00,42.1,36.1,30.21,SW,234,0.0,0.0,79,0.00,,---,0.00,VWS V14.01,2013-01-20 08:32:00,
2013-01-20 02:33:00,42.1,36.1,30.21,SW,233,0.0,0.0,79,0.00,,---,0.00,VWS V14.01,2013-01-20 08:33:00,
2013-01-20 02:34:00,42.1,35.8,30.21,SW,234,0.0,0.0,78,0.00,,---,0.00,VWS V14.01,2013-01-20 08:34:00,
2013-01-20 02:37:00,42.2,35.8,30.20,WSW,244,0.0,1.0,78,0.00,,---,0.00,VWS V14.01,2013-01-20 08:37:00,
2013-01-20 02:39:00,42.2,35.8,30.20,WSW,243,0.0,1.0,78,0.00,,---,0.00,VWS V14.01,2013-01-20 08:39:00,
2013-01-20 02:42:00,42.2,35.8,30.20,West,269,0.0,1.0,78,0.00,,---,0.00,VWS V14.01,2013-01-20 08:42:00,
2013-01-20 02:43:00,42.2,35.8,30.20,West,269,0.0,1.0,78,0.00,,---,0.00,VWS V14.01,2013-01-20 08:43:00,
2013-01-20 02:44:00,42.2,35.8,30.21,West,269,0.0,1.0,78,0.00,,---,0.00,VWS V14.01,2013-01-20 08:44:00,
2013-01-20 02:47:00,42.2,35.8,30.21,West,270,0.0,1.0,78,0.00,,---,0.00,VWS V14.01,2013-01-20 08:47:00,
2013-01-20 02:48:00,42.3,35.9,30.21,West,270,0.0,1.0,78,0.00,,---,0.00,VWS V14.01,2013-01-20 08:48:00,
2013-01-20 02:49:00,42.3,35.9,30.21,West,270,0.0,1.0,78,0.00,,---,0.00,VWS V14.01,2013-01-20 08:49:00,
2013-01-20 02:52:00,42.4,35.7,30.21,West,270,0.0,1.0,77,0.00,,---,0.00,VWS V14.01,2013-01-20 08:52:00,
2013-01-20 02:53:00,42.4,35.7,30.21,West,270,0.0,1.0,77,0.00,,---,0.00,VWS V14.01,2013-01-20 08:53:00,
2013-01-20 02:54:00,42.4,35.7,30.20,West,270,0.0,1.0,77,0.00,,---,0.00,VWS V14.01,2013-01-20 08:54:00,
2013-01-20 02:58:00,42.4,35.7,30.20,West,271,0.0,1.0,77,0.00,,---,0.00,VWS V14.01,2013-01-20 08:58:00,
2013-01-20 02:59:00,42.4,35.7,30.20,West,266,0.0,1.0,77,0.00,,---,0.00,VWS V14.01,2013-01-20 08:59:00,
2013-01-20 03:03:00,42.3,35.6,30.20,West,266,0.0,0.0,77,0.00,,---,0.00,VWS V14.01,2013-01-20 09:03:00,
2013-01-20 03:04:00,42.3,35.6,30.20,West,266,0.0,0.0,77,0.00,,---,0.00,VWS V14.01,2013-01-20 09:04:00,
2013-01-20 03:08:00,42.2,35.8,30.20,West,266,0.0,0.0,78,0.00,,---,0.00,VWS V14.01,2013-01-20 09:08:00,
2013-01-20 03:09:00,42.2,35.8,30.21,West,266,0.0,0.0,78,0.00,,---,0.00,VWS V14.01,2013-01-20 09:09:00,
2013-01-20 03:10:00,42.2,35.8,30.21,West,266,0.0,0.0,78,0.00,,---,0.00,VWS V14.01,2013-01-20 09:10:00,
2013-01-20 03:13:00,42.0,35.7,30.20,West,266,0.0,0.0,78,0.00,,---,0.00,VWS V14.01,2013-01-20 09:13:00,
2013-01-20 03:14:00,42.0,35.7,30.20,West,266,0.0,0.0,78,0.00,,---,0.00,VWS V14.01,2013-01-20 09:14:00,
2013-01-20 03:15:00,41.9,35.5,30.20,West,266,0.0,0.0,78,0.00,,---,0.00,VWS V14.01,2013-01-20 09:15:00,
2013-01-20 03:18:00,41.7,35.4,30.21,West,266,0.0,0.0,78,0.00,,---,0.00,VWS V14.01,2013-01-20 09:18:00,
2013-01-20 03:19:00,41.7,35.4,30.20,West,266,0.0,0.0,78,0.00,,---,0.00,VWS V14.01,2013-01-20 09:19:00,
2013-01-20 03:20:00,41.6,35.3,30.20,West,266,0.0,0.0,78,0.00,,---,0.00,VWS V14.01,2013-01-20 09:20:00,
2013-01-20 03:23:00,41.5,35.5,30.20,West,266,0.0,0.0,79,0.00,,---,0.00,VWS V14.01,2013-01-20 09:23:00,
2013-01-20 03:24:00,41.5,35.5,30.20,West,266,0.0,0.0,79,0.00,,---,0.00,VWS V14.01,2013-01-20 09:24:00,
2013-01-20 03:25:00,41.4,35.4,30.20,West,266,0.0,0.0,79,0.00,,---,0.00,VWS V14.01,2013-01-20 09:25:00,
2013-01-20 03:28:00,41.3,35.3,30.20,West,266,0.0,0.0,79,0.00,,---,0.00,VWS V14.01,2013-01-20 09:28:00,
2013-01-20 03:29:00,41.3,35.3,30.20,West,266,0.0,0.0,79,0.00,,---,0.00,VWS V14.01,2013-01-20 09:29:00,
2013-01-20 03:30:00,41.4,35.4,30.20,West,266,0.0,0.0,79,0.00,,---,0.00,VWS V14.01,2013-01-20 09:30:00,
2013-01-20 03:33:00,41.5,35.5,30.20,West,266,0.0,0.0,79,0.00,,---,0.00,VWS V14.01,2013-01-20 09:33:00,
2013-01-20 03:34:00,41.5,35.5,30.20,West,266,0.0,0.0,79,0.00,,---,0.00,VWS V14.01,2013-01-20 09:34:00,
2013-01-20 03:35:00,41.6,35.6,30.20,West,266,0.0,0.0,79,0.00,,---,0.00,VWS V14.01,2013-01-20 09:35:00,
2013-01-20 03:38:00,41.6,35.3,30.20,West,266,0.0,0.0,78,0.00,,---,0.00,VWS V14.01,2013-01-20 09:38:00,
2013-01-20 03:39:00,41.6,35.3,30.20,West,266,0.0,0.0,78,0.00,,---,0.00,VWS V14.01,2013-01-20 09:39:00,
2013-01-20 03:40:00,41.5,35.2,30.20,West,266,0.0,0.0,78,0.00,,---,0.00,VWS V14.01,2013-01-20 09:40:00,
2013-01-20 03:43:00,41.4,35.4,30.20,West,266,0.0,0.0,79,0.00,,---,0.00,VWS V14.01,2013-01-20 09:43:00,
2013-01-20 03:44:00,41.3,35.3,30.20,West,266,0.0,0.0,79,0.00,,---,0.00,VWS V14.01,2013-01-20 09:44:00,
2013-01-20 03:45:00,41.3,35.3,30.20,West,266,0.0,0.0,79,0.00,,---,0.00,VWS V14.01,2013-01-20 09:45:00,
2013-01-20 03:48:00,41.3,35.3,30.20,West,266,0.0,0.0,79,0.00,,---,0.00,VWS V14.01,2013-01-20 09:48:00,
2013-01-20 03:49:00,41.3,35.3,30.20,West,266,0.0,0.0,79,0.00,,---,0.00,VWS V14.01,2013-01-20 09:49:00,
2013-01-20 03:50:00,41.3,35.3,30.20,West,266,0.0,0.0,79,0.00,,---,0.00,VWS V14.01,2013-01-20 09:50:00,
2013-01-20 03:53:00,41.5,35.5,30.20,West,266,0.0,0.0,79,0.00,,---,0.00,VWS V14.01,2013-01-20 09:53:00,
2013-01-20 03:54:00,41.5,35.5,30.20,West,266,0.0,0.0,79,0.00,,---,0.00,VWS V14.01,2013-01-20 09:54:00,
2013-01-20 03:55:00,41.7,35.7,30.20,West,266,0.0,0.0,79,0.00,,---,0.00,VWS V14.01,2013-01-20 09:55:00,
2013-01-20 03:56:00,41.7,35.7,30.20,West,266,0.0,0.0,79,0.00,,---,0.00,VWS V14.01,2013-01-20 09:56:00,
2013-01-20 03:58:00,41.8,35.5,30.20,West,266,0.0,0.0,78,0.00,,---,0.00,VWS V14.01,2013-01-20 09:58:00,
2013-01-20 03:59:00,41.8,35.5,30.20,West,266,0.0,0.0,78,0.00,,---,0.00,VWS V14.01,2013-01-20 09:59:00,
2013-01-20 04:00:00,41.9,35.5,30.20,West,266,0.0,0.0,78,0.00,,---,0.00,VWS V14.01,2013-01-20 10:00:00,
2013-01-20 04:01:00,41.9,35.5,30.20,West,266,0.0,0.0,78,0.00,,---,0.00,VWS V14.01,2013-01-20 10:01:00,
2013-01-20 04:04:00,41.8,35.5,30.19,West,266,0.0,0.0,78,0.00,,---,0.00,VWS V14.01,2013-01-20 10:04:00,
2013-01-20 04:05:00,41.8,35.5,30.19,West,266,0.0,0.0,78,0.00,,---,0.00,VWS V14.01,2013-01-20 10:05:00,
2013-01-20 04:06:00,41.7,35.4,30.19,West,266,0.0,0.0,78,0.00,,---,0.00,VWS V14.01,2013-01-20 10:06:00,
2013-01-20 04:09:00,41.7,35.4,30.19,West,266,0.0,0.0,78,0.00,,---,0.00,VWS V14.01,2013-01-20 10:09:00,
2013-01-20 04:10:00,41.7,35.4,30.19,West,266,0.0,0.0,78,0.00,,---,0.00,VWS V14.01,2013-01-20 10:10:00,
2013-01-20 04:13:00,41.6,35.3,30.19,West,266,0.0,0.0,78,0.00,,---,0.00,VWS V14.01,2013-01-20 10:13:00,
2013-01-20 04:14:00,41.6,35.3,30.19,West,266,0.0,0.0,78,0.00,,---,0.00,VWS V14.01,2013-01-20 10:14:00,
2013-01-20 04:15:00,41.6,35.3,30.19,West,266,0.0,0.0,78,0.00,,---,0.00,VWS V14.01,2013-01-20 10:15:00,
2013-01-20 04:18:00,41.4,35.1,30.19,West,266,0.0,0.0,78,0.00,,---,0.00,VWS V14.01,2013-01-20 10:18:00,
2013-01-20 04:19:00,41.4,35.1,30.19,West,266,0.0,0.0,78,0.00,,---,0.00,VWS V14.01,2013-01-20 10:19:00,
2013-01-20 04:20:00,41.3,35.0,30.19,West,266,0.0,0.0,78,0.00,,---,0.00,VWS V14.01,2013-01-20 10:20:00,
2013-01-20 04:23:00,41.1,35.1,30.19,West,266,0.0,0.0,79,0.00,,---,0.00,VWS V14.01,2013-01-20 10:23:00,
2013-01-20 04:24:00,41.1,35.1,30.19,West,266,0.0,0.0,79,0.00,,---,0.00,VWS V14.01,2013-01-20 10:24:00,
2013-01-20 04:26:00,40.9,34.9,30.19,West,266,0.0,0.0,79,0.00,,---,0.00,VWS V14.01,2013-01-20 10:26:00,
2013-01-20 04:28:00,40.7,35.0,30.19,West,266,0.0,0.0,80,0.00,,---,0.00,VWS V14.01,2013-01-20 10:28:00,
2013-01-20 04:29:00,40.7,35.0,30.19,West,266,0.0,0.0,80,0.00,,---,0.00,VWS V14.01,2013-01-20 10:29:00,
2013-01-20 04:31:00,40.7,35.0,30.19,West,266,0.0,0.0,80,0.00,,---,0.00,VWS V14.01,2013-01-20 10:31:00,
2013-01-20 04:33:00,40.5,34.8,30.20,West,266,0.0,0.0,80,0.00,,---,0.00,VWS V14.01,2013-01-20 10:33:00,
2013-01-20 04:34:00,40.5,34.8,30.20,West,266,0.0,0.0,80,0.00,,---,0.00,VWS V14.01,2013-01-20 10:34:00,
2013-01-20 04:36:00,40.4,34.7,30.20,West,266,0.0,0.0,80,0.00,,---,0.00,VWS V14.01,2013-01-20 10:36:00,
2013-01-20 04:38:00,40.3,34.9,30.20,West,266,0.0,0.0,81,0.00,,---,0.00,VWS V14.01,2013-01-20 10:38:00,
2013-01-20 04:39:00,40.2,34.8,30.20,West,266,0.0,0.0,81,0.00,,---,0.00,VWS V14.01,2013-01-20 10:39:00,
2013-01-20 04:41:00,40.1,34.8,30.20,West,266,0.0,0.0,81,0.00,,---,0.00,VWS V14.01,2013-01-20 10:41:00,
2013-01-20 04:43:00,39.9,34.5,30.20,West,266,0.0,0.0,81,0.00,,---,0.00,VWS V14.01,2013-01-20 10:43:00,
2013-01-20 04:44:00,39.9,34.5,30.20,West,266,0.0,0.0,81,0.00,,---,0.00,VWS V14.01,2013-01-20 10:44:00,
2013-01-20 04:46:00,39.7,34.4,30.20,West,266,0.0,0.0,81,0.00,,---,0.00,VWS V14.01,2013-01-20 10:46:00,
2013-01-20 04:49:00,39.6,34.6,30.20,West,266,0.0,0.0,82,0.00,,---,0.00,VWS V14.01,2013-01-20 10:49:00,
2013-01-20 04:51:00,39.5,34.5,30.20,West,266,0.0,0.0,82,0.00,,---,0.00,VWS V14.01,2013-01-20 10:51:00,
2013-01-20 04:54:00,39.3,34.3,30.20,West,266,0.0,0.0,82,0.00,,---,0.00,VWS V14.01,2013-01-20 10:54:00,
2013-01-20 04:56:00,39.1,34.1,30.20,West,266,0.0,0.0,82,0.00,,---,0.00,VWS V14.01,2013-01-20 10:56:00,
2013-01-20 04:57:00,39.0,34.0,30.20,West,266,0.0,0.0,82,0.00,,---,0.00,VWS V14.01,2013-01-20 10:57:00,
2013-01-20 04:59:00,38.9,34.2,30.20,West,266,0.0,0.0,83,0.00,,---,0.00,VWS V14.01,2013-01-20 10:59:00,
2013-01-20 05:01:00,38.8,34.4,30.20,West,266,0.0,0.0,84,0.00,,---,0.00,VWS V14.01,2013-01-20 11:01:00,
2013-01-20 05:02:00,38.8,34.4,30.20,West,266,0.0,0.0,84,0.00,,---,0.00,VWS V14.01,2013-01-20 11:02:00,
2013-01-20 05:04:00,38.9,34.5,30.20,West,266,0.0,0.0,84,0.00,,---,0.00,VWS V14.01,2013-01-20 11:04:00,
2013-01-20 05:06:00,38.9,34.2,30.20,West,266,0.0,0.0,83,0.00,,---,0.00,VWS V14.01,2013-01-20 11:06:00,
2013-01-20 05:07:00,38.9,34.2,30.20,West,266,0.0,0.0,83,0.00,,---,0.00,VWS V14.01,2013-01-20 11:07:00,
2013-01-20 05:09:00,39.0,34.6,30.20,West,266,0.0,0.0,84,0.00,,---,0.00,VWS V14.01,2013-01-20 11:09:00,
2013-01-20 05:11:00,39.1,34.4,30.21,West,266,0.0,0.0,83,0.00,,---,0.00,VWS V14.01,2013-01-20 11:11:00,
2013-01-20 05:12:00,39.1,34.4,30.21,West,266,0.0,0.0,83,0.00,,---,0.00,VWS V14.01,2013-01-20 11:12:00,
2013-01-20 05:14:00,39.0,34.3,30.20,West,266,0.0,0.0,83,0.00,,---,0.00,VWS V14.01,2013-01-20 11:14:00,
2013-01-20 05:17:00,38.8,34.1,30.21,West,266,0.0,0.0,83,0.00,,---,0.00,VWS V14.01,2013-01-20 11:17:00,
2013-01-20 05:19:00,38.8,34.4,30.21,West,266,0.0,0.0,84,0.00,,---,0.00,VWS V14.01,2013-01-20 11:19:00,
2013-01-20 05:20:00,38.7,34.3,30.21,West,266,0.0,0.0,84,0.00,,---,0.00,VWS V14.01,2013-01-20 11:20:00,
2013-01-20 05:22:00,38.6,34.2,30.21,West,266,0.0,0.0,84,0.00,,---,0.00,VWS V14.01,2013-01-20 11:22:00,
2013-01-20 05:24:00,38.6,34.2,30.21,West,266,0.0,0.0,84,0.00,,---,0.00,VWS V14.01,2013-01-20 11:24:00,
2013-01-20 05:25:00,38.5,34.1,30.21,West,266,0.0,0.0,84,0.00,,---,0.00,VWS V14.01,2013-01-20 11:25:00,
2013-01-20 05:27:00,38.5,34.4,30.21,West,266,0.0,0.0,85,0.00,,---,0.00,VWS V14.01,2013-01-20 11:27:00,
2013-01-20 05:29:00,38.3,33.9,30.21,West,266,0.0,0.0,84,0.00,,---,0.00,VWS V14.01,2013-01-20 11:29:00,
2013-01-20 05:30:00,38.3,33.9,30.21,West,266,0.0,0.0,84,0.00,,---,0.00,VWS V14.01,2013-01-20 11:30:00,
2013-01-20 05:32:00,38.2,33.8,30.21,West,266,0.0,0.0,84,0.00,,---,0.00,VWS V14.01,2013-01-20 11:32:00,
2013-01-20 05:34:00,38.0,33.9,30.21,West,266,0.0,0.0,85,0.00,,---,0.00,VWS V14.01,2013-01-20 11:34:00,
2013-01-20 05:35:00,38.0,33.9,30.21,West,266,0.0,0.0,85,0.00,,---,0.00,VWS V14.01,2013-01-20 11:35:00,
2013-01-20 05:37:00,37.8,33.7,30.21,West,266,0.0,0.0,85,0.00,,---,0.00,VWS V14.01,2013-01-20 11:37:00,
2013-01-20 05:39:00,37.6,33.5,30.21,West,266,0.0,0.0,85,0.00,,---,0.00,VWS V14.01,2013-01-20 11:39:00,
2013-01-20 05:40:00,37.6,33.5,30.21,West,266,0.0,0.0,85,0.00,,---,0.00,VWS V14.01,2013-01-20 11:40:00,
2013-01-20 05:42:00,37.7,34.2,30.21,West,266,0.0,0.0,87,0.00,,---,0.00,VWS V14.01,2013-01-20 11:42:00,
2013-01-20 05:44:00,37.9,34.4,30.21,West,266,0.0,0.0,87,0.00,,---,0.00,VWS V14.01,2013-01-20 11:44:00,
2013-01-20 05:45:00,37.9,34.1,30.21,West,266,0.0,0.0,86,0.00,,---,0.00,VWS V14.01,2013-01-20 11:45:00,
2013-01-20 05:47:00,37.8,34.0,30.21,West,266,0.0,0.0,86,0.00,,---,0.00,VWS V14.01,2013-01-20 11:47:00,
2013-01-20 05:49:00,37.7,33.9,30.21,West,266,0.0,0.0,86,0.00,,---,0.00,VWS V14.01,2013-01-20 11:49:00,
2013-01-20 05:50:00,37.7,33.9,30.21,West,266,0.0,0.0,86,0.00,,---,0.00,VWS V14.01,2013-01-20 11:50:00,
2013-01-20 05:52:00,37.6,33.8,30.21,West,266,0.0,0.0,86,0.00,,---,0.00,VWS V14.01,2013-01-20 11:52:00,
2013-01-20 05:54:00,37.5,33.7,30.21,West,266,0.0,0.0,86,0.00,,---,0.00,VWS V14.01,2013-01-20 11:54:00,
2013-01-20 05:55:00,37.4,33.6,30.22,West,266,0.0,0.0,86,0.00,,---,0.00,VWS V14.01,2013-01-20 11:55:00,
2013-01-20 05:57:00,37.4,33.9,30.22,West,266,0.0,0.0,87,0.00,,---,0.00,VWS V14.01,2013-01-20 11:57:00,
2013-01-20 05:59:00,37.4,33.9,30.22,West,266,0.0,0.0,87,0.00,,---,0.00,VWS V14.01,2013-01-20 11:59:00,
2013-01-20 06:00:00,37.4,33.9,30.22,West,266,0.0,0.0,87,0.00,,---,0.00,VWS V14.01,2013-01-20 12:00:00,
2013-01-20 06:02:00,37.4,33.9,30.22,West,266,0.0,0.0,87,0.00,,---,0.00,VWS V14.01,2013-01-20 12:02:00,
2013-01-20 06:05:00,37.4,33.9,30.22,West,266,0.0,0.0,87,0.00,,---,0.00,VWS V14.01,2013-01-20 12:05:00,
2013-01-20 06:07:00,37.2,33.7,30.22,West,266,0.0,0.0,87,0.00,,---,0.00,VWS V14.01,2013-01-20 12:07:00,
2013-01-20 06:08:00,37.2,33.7,30.22,West,266,0.0,0.0,87,0.00,,---,0.00,VWS V14.01,2013-01-20 12:08:00,
2013-01-20 06:10:00,37.1,33.6,30.21,West,266,0.0,0.0,87,0.00,,---,0.00,VWS V14.01,2013-01-20 12:10:00,
2013-01-20 06:12:00,36.9,33.4,30.22,West,266,0.0,0.0,87,0.00,,---,0.00,VWS V14.01,2013-01-20 12:12:00,
2013-01-20 06:13:00,36.9,33.4,30.21,West,266,0.0,0.0,87,0.00,,---,0.00,VWS V14.01,2013-01-20 12:13:00,
2013-01-20 06:15:00,36.7,33.2,30.21,West,266,0.0,0.0,87,0.00,,---,0.00,VWS V14.01,2013-01-20 12:15:00,
2013-01-20 06:16:00,36.7,33.2,30.21,West,266,0.0,0.0,87,0.00,,---,0.00,VWS V14.01,2013-01-20 12:16:00,
2013-01-20 06:17:00,36.5,33.3,30.22,West,266,0.0,0.0,88,0.00,,---,0.00,VWS V14.01,2013-01-20 12:17:00,
2013-01-20 06:18:00,36.5,33.3,30.22,West,266,0.0,0.0,88,0.00,,---,0.00,VWS V14.01,2013-01-20 12:18:00,
2013-01-20 06:20:00,36.3,33.1,30.22,West,266,0.0,0.0,88,0.00,,---,0.00,VWS V14.01,2013-01-20 12:20:00,
2013-01-20 06:21:00,36.3,33.1,30.22,West,266,0.0,0.0,88,0.00,,---,0.00,VWS V14.01,2013-01-20 12:21:00,
2013-01-20 06:30:00,35.7,32.5,30.21,West,266,0.0,0.0,88,0.00,,---,0.00,VWS V14.01,2013-01-20 12:30:00,
2013-01-20 06:35:00,35.3,32.4,30.22,West,266,0.0,0.0,89,0.00,,---,0.00,VWS V14.01,2013-01-20 12:35:00,
2013-01-20 06:36:00,35.3,32.4,30.22,West,266,0.0,0.0,89,0.00,,---,0.00,VWS V14.01,2013-01-20 12:36:00,
2013-01-20 06:40:00,35.1,32.5,30.21,West,266,0.0,0.0,90,0.00,,---,0.00,VWS V14.01,2013-01-20 12:40:00,
2013-01-20 06:41:00,35.1,32.5,30.22,West,266,0.0,0.0,90,0.00,,---,0.00,VWS V14.01,2013-01-20 12:41:00,
2013-01-20 06:46:00,35.0,32.4,30.22,West,266,0.0,0.0,90,0.00,,---,0.00,VWS V14.01,2013-01-20 12:46:00,
2013-01-20 06:51:00,35.2,32.8,30.22,West,266,0.0,0.0,91,0.00,,---,0.00,VWS V14.01,2013-01-20 12:51:00,
2013-01-20 06:56:00,35.3,32.9,30.22,West,266,0.0,0.0,91,0.00,,---,0.00,VWS V14.01,2013-01-20 12:56:00,
2013-01-20 07:01:00,35.1,32.7,30.22,West,266,0.0,0.0,91,0.00,,---,0.00,VWS V14.01,2013-01-20 13:01:00,
2013-01-20 07:06:00,34.8,32.5,30.22,West,266,0.0,0.0,91,0.00,,---,0.00,VWS V14.01,2013-01-20 13:06:00,
2013-01-20 07:11:00,34.6,32.2,30.22,West,266,0.0,0.0,91,0.00,,---,0.00,VWS V14.01,2013-01-20 13:11:00,
2013-01-20 07:16:00,34.5,32.2,30.22,West,266,0.0,0.0,91,0.00,,---,0.00,VWS V14.01,2013-01-20 13:16:00,
2013-01-20 07:21:00,34.3,32.0,30.23,West,266,0.0,0.0,91,0.00,,---,0.00,VWS V14.01,2013-01-20 13:21:00,
2013-01-20 07:22:00,34.3,32.0,30.23,West,266,0.0,0.0,91,0.00,,---,0.00,VWS V14.01,2013-01-20 13:22:00,
2013-01-20 07:26:00,34.2,31.9,30.23,West,266,0.0,0.0,91,0.00,,---,0.00,VWS V14.01,2013-01-20 13:26:00,
2013-01-20 07:27:00,34.2,31.9,30.23,West,266,0.0,0.0,91,0.00,,---,0.00,VWS V14.01,2013-01-20 13:27:00,
2013-01-20 07:32:00,34.2,32.1,30.23,West,266,0.0,0.0,92,0.00,,---,0.00,VWS V14.01,2013-01-20 13:32:00,
2013-01-20 07:33:00,34.2,32.1,30.23,West,266,0.0,0.0,92,0.00,,---,0.00,VWS V14.01,2013-01-20 13:33:00,
2013-01-20 07:37:00,34.3,32.2,30.23,West,266,0.0,0.0,92,0.00,,---,0.00,VWS V14.01,2013-01-20 13:37:00,
2013-01-20 07:38:00,34.3,32.2,30.23,West,266,0.0,0.0,92,0.00,,---,0.00,VWS V14.01,2013-01-20 13:38:00,
2013-01-20 07:43:00,34.5,32.4,30.23,West,266,0.0,0.0,92,0.00,,---,0.00,VWS V14.01,2013-01-20 13:43:00,
2013-01-20 07:44:00,34.6,32.5,30.24,West,266,0.0,0.0,92,0.00,,---,0.00,VWS V14.01,2013-01-20 13:44:00,
2013-01-20 07:48:00,34.6,32.5,30.24,West,266,0.0,0.0,92,0.00,,---,0.00,VWS V14.01,2013-01-20 13:48:00,
2013-01-20 07:49:00,34.7,32.6,30.24,West,266,0.0,0.0,92,0.00,,---,0.00,VWS V14.01,2013-01-20 13:49:00,
2013-01-20 07:53:00,34.9,33.1,30.24,West,266,0.0,0.0,93,0.00,,---,0.00,VWS V14.01,2013-01-20 13:53:00,
2013-01-20 07:54:00,34.9,33.1,30.24,West,266,0.0,0.0,93,0.00,,---,0.00,VWS V14.01,2013-01-20 13:54:00,
2013-01-20 07:58:00,35.2,33.4,30.24,West,266,0.0,0.0,93,0.00,,---,0.00,VWS V14.01,2013-01-20 13:58:00,
2013-01-20 07:59:00,35.3,33.5,30.24,West,266,0.0,0.0,93,0.00,,---,0.00,VWS V14.01,2013-01-20 13:59:00,
2013-01-20 08:04:00,35.6,33.8,30.24,West,266,0.0,0.0,93,0.00,,---,0.00,VWS V14.01,2013-01-20 14:04:00,
2013-01-20 08:09:00,36.5,34.4,30.24,West,266,0.0,0.0,92,0.00,,---,0.00,VWS V14.01,2013-01-20 14:09:00,
2013-01-20 08:14:00,37.9,35.5,30.24,NNW,329,0.0,1.0,91,0.00,,---,0.00,VWS V14.01,2013-01-20 14:14:00,
2013-01-20 08:15:00,38.1,35.7,30.24,NNW,330,0.0,1.0,91,0.00,,---,0.00,VWS V14.01,2013-01-20 14:15:00,
2013-01-20 08:19:00,39.0,35.8,30.24,NNW,329,0.0,0.0,88,0.00,,---,0.00,VWS V14.01,2013-01-20 14:19:00,
2013-01-20 08:20:00,39.1,35.8,30.24,NNW,329,0.0,0.0,88,0.00,,---,0.00,VWS V14.01,2013-01-20 14:20:00,
2013-01-20 08:24:00,39.9,36.1,30.24,WNW,296,0.0,0.0,86,0.00,,---,0.00,VWS V14.01,2013-01-20 14:24:00,
2013-01-20 08:25:00,39.9,36.1,30.25,WNW,295,0.0,0.0,86,0.00,,---,0.00,VWS V14.01,2013-01-20 14:25:00,
2013-01-20 08:29:00,40.8,36.7,30.25,NNW,337,1.0,1.0,85,0.00,,---,0.00,VWS V14.01,2013-01-20 14:29:00,
2013-01-20 08:30:00,40.9,36.8,30.25,NNW,337,0.0,1.0,85,0.00,,---,0.00,VWS V14.01,2013-01-20 14:30:00,
2013-01-20 08:34:00,41.7,36.9,30.25,NNE,27,1.0,5.0,83,0.00,,---,0.00,VWS V14.01,2013-01-20 14:34:00,
2013-01-20 08:35:00,41.9,36.8,30.25,NNE,18,2.0,5.0,82,0.00,,---,0.00,VWS V14.01,2013-01-20 14:35:00,
2013-01-20 08:39:00,43.1,37.4,30.25,ENE,75,2.0,5.0,80,0.00,,---,0.00,VWS V14.01,2013-01-20 14:39:00,
2013-01-20 08:40:00,43.2,37.1,30.25,NNE,27,1.0,5.0,79,0.00,,---,0.00,VWS V14.01,2013-01-20 14:40:00,
2013-01-20 08:44:00,43.9,37.2,30.25,NE,53,1.0,5.0,77,0.00,,---,0.00,VWS V14.01,2013-01-20 14:44:00,
2013-01-20 08:45:00,43.9,37.2,30.25,NE,53,0.0,5.0,77,0.00,,---,0.00,VWS V14.01,2013-01-20 14:45:00,
2013-01-20 08:50:00,44.7,37.3,30.25,NNE,30,2.0,4.0,75,0.00,,---,0.00,VWS V14.01,2013-01-20 14:50:00,
2013-01-20 08:55:00,45.3,37.2,30.25,NE,52,1.0,6.0,73,0.00,,---,0.00,VWS V14.01,2013-01-20 14:55:00,
2013-01-20 09:00:00,45.9,37.4,30.25,NE,41,1.0,6.0,72,0.00,,---,0.00,VWS V14.01,2013-01-20 15:00:00,
2013-01-20 09:05:00,46.3,37.4,30.26,NNW,337,3.0,9.0,71,0.00,,---,0.00,VWS V14.01,2013-01-20 15:05:00,
2013-01-20 09:10:00,46.7,37.1,30.25,NNE,31,3.0,9.0,69,0.00,,---,0.00,VWS V14.01,2013-01-20 15:10:00,
2013-01-20 09:11:00,46.8,37.2,30.26,North,8,2.0,9.0,69,0.00,,---,0.00,VWS V14.01,2013-01-20 15:11:00,
2013-01-20 09:15:00,47.1,37.1,30.26,ENE,69,3.0,9.0,68,0.00,,---,0.00,VWS V14.01,2013-01-20 15:15:00,
2013-01-20 09:16:00,47.2,37.2,30.26,ENE,63,4.0,7.0,68,0.00,,---,0.00,VWS V14.01,2013-01-20 15:16:00,
2013-01-20 09:20:00,47.4,37.0,30.26,East,86,4.0,10.0,67,0.00,,---,0.00,VWS V14.01,2013-01-20 15:20:00,
2013-01-20 09:21:00,47.5,37.1,30.26,ENE,67,5.0,10.0,67,0.00,,---,0.00,VWS V14.01,2013-01-20 15:21:00,
2013-01-20 09:25:00,47.6,37.2,30.26,ENE,67,4.0,10.0,67,0.00,,---,0.00,VWS V14.01,2013-01-20 15:25:00,
2013-01-20 09:26:00,47.7,37.3,30.26,East,94,3.0,10.0,67,0.00,,---,0.00,VWS V14.01,2013-01-20 15:26:00,
2013-01-20 09:30:00,47.9,37.1,30.26,ENE,74,3.0,10.0,66,0.00,,---,0.00,VWS V14.01,2013-01-20 15:30:00,
2013-01-20 09:31:00,47.9,37.1,30.26,ENE,70,2.0,10.0,66,0.00,,---,0.00,VWS V14.01,2013-01-20 15:31:00,
2013-01-20 09:35:00,48.2,37.0,30.27,NE,55,5.0,6.0,65,0.00,,---,0.00,VWS V14.01,2013-01-20 15:35:00,
2013-01-20 09:36:00,48.2,37.0,30.27,East,89,4.0,6.0,65,0.00,,---,0.00,VWS V14.01,2013-01-20 15:36:00,
2013-01-20 09:40:00,48.4,36.8,30.27,East,87,6.0,8.0,64,0.00,,---,0.00,VWS V14.01,2013-01-20 15:40:00,
2013-01-20 09:41:00,48.4,37.2,30.27,NE,55,1.0,8.0,65,0.00,,---,0.00,VWS V14.01,2013-01-20 15:41:00,
2013-01-20 09:45:00,48.7,37.5,30.27,NE,41,1.0,8.0,65,0.00,,---,0.00,VWS V14.01,2013-01-20 15:45:00,
2013-01-20 09:46:00,48.7,37.5,30.27,ENE,77,2.0,8.0,65,0.00,,---,0.00,VWS V14.01,2013-01-20 15:46:00,
2013-01-20 09:50:00,49.2,37.2,30.27,East,97,5.0,7.0,63,0.00,,---,0.00,VWS V14.01,2013-01-20 15:50:00,
2013-01-20 09:51:00,49.2,37.2,30.27,East,89,2.0,7.0,63,0.00,,---,0.00,VWS V14.01,2013-01-20 15:51:00,
2013-01-20 09:55:00,49.3,36.4,30.27,East,89,3.0,9.0,61,0.00,,---,0.00,VWS V14.01,2013-01-20 15:55:00,
2013-01-20 09:56:00,49.3,36.4,30.27,NNE,24,4.0,9.0,61,0.00,,---,0.00,VWS V14.01,2013-01-20 15:56:00,
2013-01-20 10:00:00,49.7,35.5,30.27,East,89,5.0,13.0,58,0.00,,---,0.00,VWS V14.01,2013-01-20 16:00:00,
2013-01-20 10:01:00,49.7,35.5,30.27,ENE,76,3.0,7.0,58,0.00,,---,0.00,VWS V14.01,2013-01-20 16:01:00,
2013-01-20 10:06:00,49.9,35.3,30.27,ENE,68,7.0,12.0,57,0.00,,---,0.00,VWS V14.01,2013-01-20 16:06:00,
2013-01-20 10:11:00,50.1,35.9,30.27,NNE,28,3.0,12.0,58,0.00,,---,0.00,VWS V14.01,2013-01-20 16:11:00,
2013-01-20 10:12:00,50.2,35.6,30.27,East,80,5.0,12.0,57,0.00,,---,0.00,VWS V14.01,2013-01-20 16:12:00,
2013-01-20 10:16:00,50.4,35.3,30.27,NNE,17,1.0,2.0,56,0.00,,---,0.00,VWS V14.01,2013-01-20 16:16:00,
2013-01-20 10:17:00,50.4,35.8,30.27,North,3,1.0,2.0,57,0.00,,---,0.00,VWS V14.01,2013-01-20 16:17:00,
2013-01-20 10:21:00,51.0,35.9,30.26,ENE,63,3.0,10.0,56,0.00,,---,0.00,VWS V14.01,2013-01-20 16:21:00,
2013-01-20 10:22:00,51.0,35.4,30.26,East,87,8.0,12.0,55,0.00,,---,0.00,VWS V14.01,2013-01-20 16:22:00,
2013-01-20 10:26:00,51.1,35.0,30.26,ENE,65,4.0,12.0,54,0.00,,---,0.00,VWS V14.01,2013-01-20 16:26:00,
2013-01-20 10:27:00,51.1,34.6,30.26,East,82,3.0,12.0,53,0.00,,---,0.00,VWS V14.01,2013-01-20 16:27:00,
2013-01-20 10:31:00,51.2,35.1,30.26,East,82,9.0,9.0,54,0.00,,---,0.00,VWS V14.01,2013-01-20 16:31:00,
2013-01-20 10:32:00,51.2,34.7,30.26,East,100,4.0,9.0,53,0.00,,---,0.00,VWS V14.01,2013-01-20 16:32:00,
2013-01-20 10:36:00,51.3,34.3,30.26,ENE,66,3.0,10.0,52,0.00,,---,0.00,VWS V14.01,2013-01-20 16:36:00,
2013-01-20 10:37:00,51.3,34.8,30.26,ESE,107,3.0,10.0,53,0.00,,---,0.00,VWS V14.01,2013-01-20 16:37:00,
2013-01-20 10:38:00,51.3,34.3,30.26,ENE,73,9.0,10.0,52,0.00,,---,0.00,VWS V14.01,2013-01-20 16:38:00,
2013-01-20 10:41:00,51.5,34.0,30.26,East,96,7.0,12.0,51,0.00,,---,0.00,VWS V14.01,2013-01-20 16:41:00,
2013-01-20 10:42:00,51.4,33.9,30.26,ENE,77,3.0,12.0,51,0.00,,---,0.00,VWS V14.01,2013-01-20 16:42:00,
2013-01-20 10:43:00,51.4,34.4,30.26,NE,46,2.0,12.0,52,0.00,,---,0.00,VWS V14.01,2013-01-20 16:43:00,
2013-01-20 10:46:00,51.6,34.1,30.26,East,94,3.0,3.0,51,0.00,,---,0.00,VWS V14.01,2013-01-20 16:46:00,
2013-01-20 10:47:00,51.6,34.1,30.26,ENE,74,10.0,10.0,51,0.00,,---,0.00,VWS V14.01,2013-01-20 16:47:00,
2013-01-20 10:48:00,51.7,34.2,30.26,East,86,4.0,10.0,51,0.00,,---,0.00,VWS V14.01,2013-01-20 16:48:00,
2013-01-20 10:51:00,52.0,34.0,30.26,East,80,4.0,10.0,50,0.00,,---,0.00,VWS V14.01,2013-01-20 16:51:00,
2013-01-20 10:52:00,52.0,34.0,30.26,ENE,73,10.0,10.0,50,0.00,,---,0.00,VWS V14.01,2013-01-20 16:52:00,
2013-01-20 10:53:00,52.0,34.0,30.26,WSW,238,1.0,10.0,50,0.00,,---,0.00,VWS V14.01,2013-01-20 16:53:00,
2013-01-20 10:57:00,52.2,34.1,30.25,East,86,7.0,10.0,50,0.00,,---,0.00,VWS V14.01,2013-01-20 16:57:00,
2013-01-20 10:58:00,52.2,33.1,30.25,ESE,111,1.0,10.0,48,0.00,,---,0.00,VWS V14.01,2013-01-20 16:58:00,
2013-01-20 11:02:00,52.4,33.8,30.25,ENE,60,7.0,7.0,49,0.00,,---,0.00,VWS V14.01,2013-01-20 17:02:00,
2013-01-20 11:03:00,52.5,33.4,30.25,East,85,5.0,11.0,48,0.00,,---,0.00,VWS V14.01,2013-01-20 17:03:00,
2013-01-20 11:04:00,52.4,33.3,30.25,ESE,110,1.0,11.0,48,0.00,,---,0.00,VWS V14.01,2013-01-20 17:04:00,
2013-01-20 11:07:00,52.5,33.4,30.24,ENE,67,4.0,11.0,48,0.00,,---,0.00,VWS V14.01,2013-01-20 17:07:00,
2013-01-20 11:08:00,52.6,33.5,30.24,NE,34,1.0,11.0,48,0.00,,---,0.00,VWS V14.01,2013-01-20 17:08:00,
2013-01-20 11:09:00,52.6,33.5,30.24,ENE,77,7.0,11.0,48,0.00,,---,0.00,VWS V14.01,2013-01-20 17:09:00,
2013-01-20 11:12:00,52.9,33.8,30.24,East,94,4.0,11.0,48,0.00,,---,0.00,VWS V14.01,2013-01-20 17:12:00,
2013-01-20 11:13:00,52.9,33.8,30.24,East,82,4.0,11.0,48,0.00,,---,0.00,VWS V14.01,2013-01-20 17:13:00,
2013-01-20 11:14:00,53.0,33.8,30.24,NE,42,5.0,11.0,48,0.00,,---,0.00,VWS V14.01,2013-01-20 17:14:00,
2013-01-20 11:18:00,53.1,33.4,30.24,NNE,18,4.0,6.0,47,0.00,,---,0.00,VWS V14.01,2013-01-20 17:18:00,
2013-01-20 11:19:00,53.2,33.0,30.24,East,88,8.0,8.0,46,0.00,,---,0.00,VWS V14.01,2013-01-20 17:19:00,
2013-01-20 11:23:00,53.4,32.6,30.24,ENE,57,2.0,8.0,45,0.00,,---,0.00,VWS V14.01,2013-01-20 17:23:00,
2013-01-20 11:24:00,53.5,32.7,30.23,North,349,3.0,8.0,45,0.00,,---,0.00,VWS V14.01,2013-01-20 17:24:00,
2013-01-20 11:28:00,53.8,33.0,30.23,ENE,75,2.0,8.0,45,0.00,,---,0.00,VWS V14.01,2013-01-20 17:28:00,
2013-01-20 11:29:00,53.9,33.6,30.23,SSE,159,1.0,8.0,46,0.00,,---,0.00,VWS V14.01,2013-01-20 17:29:00,
2013-01-20 11:33:00,54.0,33.2,30.23,North,6,3.0,10.0,45,0.00,,---,0.00,VWS V14.01,2013-01-20 17:33:00,
2013-01-20 11:34:00,54.1,33.2,30.23,ENE,70,4.0,10.0,45,0.00,,---,0.00,VWS V14.01,2013-01-20 17:34:00,
2013-01-20 11:38:00,54.3,33.4,30.22,ENE,69,2.0,10.0,45,0.00,,---,0.00,VWS V14.01,2013-01-20 17:38:00,
2013-01-20 11:39:00,54.3,33.4,30.22,NW,314,2.0,10.0,45,0.00,,---,0.00,VWS V14.01,2013-01-20 17:39:00,
2013-01-20 11:43:00,54.7,32.7,30.22,North,8,3.0,10.0,43,0.00,,---,0.00,VWS V14.01,2013-01-20 17:43:00,
2013-01-20 11:44:00,54.8,32.8,30.22,North,8,2.0,10.0,43,0.00,,---,0.00,VWS V14.01,2013-01-20 17:44:00,
2013-01-20 11:49:00,55.1,33.6,30.22,East,97,5.0,5.0,44,0.00,,---,0.00,VWS V14.01,2013-01-20 17:49:00,
2013-01-20 11:50:00,55.1,33.6,30.22,ENE,65,3.0,5.0,44,0.00,,---,0.00,VWS V14.01,2013-01-20 17:50:00,
2013-01-20 11:54:00,55.3,33.8,30.21,NNW,336,1.0,5.0,44,0.00,,---,0.00,VWS V14.01,2013-01-20 17:54:00,
2013-01-20 11:55:00,55.4,32.7,30.22,East,86,8.0,8.0,42,0.00,,---,0.00,VWS V14.01,2013-01-20 17:55:00,
2013-01-20 11:59:00,55.0,32.3,30.21,North,2,1.0,8.0,42,0.00,,---,0.00,VWS V14.01,2013-01-20 17:59:00,
2013-01-20 12:00:00,55.0,33.5,30.21,NNW,336,1.0,8.0,44,0.00,,---,0.00,VWS V14.01,2013-01-20 18:00:00,
2013-01-20 12:04:00,55.5,33.4,30.21,East,82,3.0,5.0,43,0.00,,---,0.00,VWS V14.01,2013-01-20 18:04:00,
2013-01-20 12:05:00,55.5,32.8,30.21,North,357,2.0,5.0,42,0.00,,---,0.00,VWS V14.01,2013-01-20 18:05:00,
2013-01-20 12:09:00,55.5,31.6,30.20,SE,125,1.0,9.0,40,0.00,,---,0.00,VWS V14.01,2013-01-20 18:09:00,
2013-01-20 12:10:00,55.3,31.4,30.21,ESE,107,5.0,9.0,40,0.00,,---,0.00,VWS V14.01,2013-01-20 18:10:00,
2013-01-20 12:14:00,55.0,32.3,30.20,NNW,340,1.0,9.0,42,0.00,,---,0.00,VWS V14.01,2013-01-20 18:14:00,
2013-01-20 12:15:00,55.1,32.4,30.20,NNE,25,4.0,9.0,42,0.00,,---,0.00,VWS V14.01,2013-01-20 18:15:00,
2013-01-20 12:19:00,55.2,32.5,30.20,SE,143,0.0,7.0,42,0.00,,---,0.00,VWS V14.01,2013-01-20 18:19:00,
2013-01-20 12:20:00,55.2,32.5,30.20,SE,127,2.0,7.0,42,0.00,,---,0.00,VWS V14.01,2013-01-20 18:20:00,
2013-01-20 12:24:00,55.6,32.3,30.19,ESE,115,2.0,7.0,41,0.00,,---,0.00,VWS V14.01,2013-01-20 18:24:00,
2013-01-20 12:25:00,55.6,32.3,30.19,ESE,112,2.0,7.0,41,0.00,,---,0.00,VWS V14.01,2013-01-20 18:25:00,
2013-01-20 12:29:00,55.7,31.8,30.19,East,79,2.0,7.0,40,0.00,,---,0.00,VWS V14.01,2013-01-20 18:29:00,
2013-01-20 12:30:00,55.7,32.0,30.19,East,86,5.0,5.0,40,0.00,,,0.00,weatherlink.com 1.10,2013-01-20 18:30:00,
2013-01-20 12:34:00,55.8,32.5,30.19,SSW,210,1.0,3.0,41,0.00,,---,0.00,VWS V14.01,2013-01-20 18:34:00,
2013-01-20 12:35:00,55.9,32.6,30.19,East,100,2.0,3.0,41,0.00,,---,0.00,VWS V14.01,2013-01-20 18:35:00,
2013-01-20 12:36:00,56.0,32.7,30.19,East,84,3.0,4.0,41,0.00,,---,0.00,VWS V14.01,2013-01-20 18:36:00,
2013-01-20 12:40:00,56.0,32.0,30.19,NE,38,1.0,4.0,40,0.00,,---,0.00,VWS V14.01,2013-01-20 18:40:00,
2013-01-20 12:41:00,56.0,32.0,30.18,NNE,27,0.0,4.0,40,0.00,,---,0.00,VWS V14.01,2013-01-20 18:41:00,
2013-01-20 12:45:00,56.2,32.2,30.18,East,80,2.0,4.0,40,0.00,,---,0.00,VWS V14.01,2013-01-20 18:45:00,
2013-01-20 12:46:00,56.1,32.1,30.18,NE,55,2.0,2.0,40,0.00,,---,0.00,VWS V14.01,2013-01-20 18:46:00,
2013-01-20 12:50:00,56.0,32.0,30.18,West,262,1.0,8.0,40,0.00,,---,0.00,VWS V14.01,2013-01-20 18:50:00,
2013-01-20 12:51:00,56.0,32.0,30.18,ENE,69,1.0,8.0,40,0.00,,---,0.00,VWS V14.01,2013-01-20 18:51:00,
2013-01-20 12:55:00,56.4,32.4,30.18,NW,318,1.0,8.0,40,0.00,,---,0.00,VWS V14.01,2013-01-20 18:55:00,
2013-01-20 12:56:00,56.5,33.1,30.18,NW,323,1.0,8.0,41,0.00,,---,0.00,VWS V14.01,2013-01-20 18:56:00,
2013-01-20 13:00:00,56.9,32.2,30.18,ENE,58,1.0,8.0,39,0.00,,---,0.00,VWS V14.01,2013-01-20 19:00:00,
2013-01-20 13:01:00,57.0,32.3,30.18,North,11,2.0,3.0,39,0.00,,---,0.00,VWS V14.01,2013-01-20 19:01:00,
2013-01-20 13:05:00,57.0,32.3,30.18,South,188,0.0,3.0,39,0.00,,---,0.00,VWS V14.01,2013-01-20 19:05:00,
2013-01-20 13:06:00,57.0,32.3,30.18,East,86,7.0,8.0,39,0.00,,---,0.00,VWS V14.01,2013-01-20 19:06:00,
2013-01-20 13:10:00,57.0,32.9,30.18,North,356,0.0,8.0,40,0.00,,---,0.00,VWS V14.01,2013-01-20 19:10:00,
2013-01-20 13:11:00,57.0,32.3,30.18,ESE,119,1.0,8.0,39,0.00,,---,0.00,VWS V14.01,2013-01-20 19:11:00,
2013-01-20 13:15:00,57.1,32.4,30.18,SSW,210,3.0,8.0,39,0.00,,---,0.00,VWS V14.01,2013-01-20 19:15:00,
2013-01-20 13:16:00,57.2,32.5,30.18,SSW,210,0.0,8.0,39,0.00,,---,0.00,VWS V14.01,2013-01-20 19:16:00,
2013-01-20 13:20:00,57.8,32.4,30.18,West,266,1.0,1.0,38,0.00,,---,0.00,VWS V14.01,2013-01-20 19:20:00,
2013-01-20 13:21:00,57.9,32.5,30.18,West,266,1.0,1.0,38,0.00,,---,0.00,VWS V14.01,2013-01-20 19:21:00,
2013-01-20 13:25:00,58.4,33.6,30.18,NE,48,3.0,3.0,39,0.00,,---,0.00,VWS V14.01,2013-01-20 19:25:00,
2013-01-20 13:26:00,58.4,33.6,30.18,North,1,3.0,3.0,39,0.00,,---,0.00,VWS V14.01,2013-01-20 19:26:00,
2013-01-20 13:30:00,58.0,32.6,30.18,NW,326,1.0,4.0,38,0.00,,---,0.00,VWS V14.01,2013-01-20 19:30:00,
2013-01-20 13:31:00,58.0,32.6,30.18,NW,326,0.0,4.0,38,0.00,,---,0.00,VWS V14.01,2013-01-20 19:31:00,
2013-01-20 13:35:00,58.2,32.7,30.18,SE,132,2.0,3.0,38,0.00,,---,0.00,VWS V14.01,2013-01-20 19:35:00,
2013-01-20 13:36:00,58.1,32.0,30.18,East,101,2.0,3.0,37,0.00,,---,0.00,VWS V14.01,2013-01-20 19:36:00,
2013-01-20 13:40:00,57.8,31.7,30.18,ESE,110,1.0,6.0,37,0.00,,---,0.00,VWS V14.01,2013-01-20 19:40:00,
2013-01-20 13:41:00,57.8,31.7,30.18,SSW,206,3.0,6.0,37,0.00,,---,0.00,VWS V14.01,2013-01-20 19:41:00,
2013-01-20 13:42:00,57.7,31.6,30.18,ESE,117,1.0,6.0,37,0.00,,---,0.00,VWS V14.01,2013-01-20 19:42:00,
2013-01-20 13:45:00,57.8,31.7,30.18,SW,215,2.0,6.0,37,0.00,,---,0.00,VWS V14.01,2013-01-20 19:45:00,
2013-01-20 13:46:00,57.9,32.5,30.17,SW,214,2.0,2.0,38,0.00,,---,0.00,VWS V14.01,2013-01-20 19:46:00,
2013-01-20 13:47:00,58.0,32.6,30.18,SW,214,1.0,2.0,38,0.00,,---,0.00,VWS V14.01,2013-01-20 19:47:00,
2013-01-20 13:50:00,58.2,32.1,30.18,East,91,2.0,4.0,37,0.00,,---,0.00,VWS V14.01,2013-01-20 19:50:00,
2013-01-20 13:51:00,58.2,32.1,30.17,East,84,2.0,4.0,37,0.00,,---,0.00,VWS V14.01,2013-01-20 19:51:00,
2013-01-20 13:52:00,58.1,32.0,30.17,NW,325,1.0,4.0,37,0.00,,---,0.00,VWS V14.01,2013-01-20 19:52:00,
2013-01-20 13:55:00,58.2,32.1,30.17,NW,324,1.0,4.0,37,0.00,,---,0.00,VWS V14.01,2013-01-20 19:55:00,
2013-01-20 13:56:00,58.2,31.4,30.17,NW,323,1.0,4.0,36,0.00,,---,0.00,VWS V14.01,2013-01-20 19:56:00,
2013-01-20 13:57:00,58.2,32.1,30.17,ENE,77,2.0,4.0,37,0.00,,---,0.00,VWS V14.01,2013-01-20 19:57:00,
2013-01-20 14:00:00,58.2,32.1,30.17,SW,227,1.0,4.0,37,0.00,,---,0.00,VWS V14.01,2013-01-20 20:00:00,
2013-01-20 14:01:00,58.2,32.1,30.17,SW,226,0.0,0.0,37,0.00,,---,0.00,VWS V14.01,2013-01-20 20:01:00,
2013-01-20 14:02:00,58.3,32.2,30.17,SW,226,0.0,0.0,37,0.00,,---,0.00,VWS V14.01,2013-01-20 20:02:00,
2013-01-20 14:05:00,58.7,32.5,30.17,East,82,3.0,6.0,37,0.00,,---,0.00,VWS V14.01,2013-01-20 20:05:00,
2013-01-20 14:06:00,58.6,31.8,30.17,East,89,3.0,6.0,36,0.00,,---,0.00,VWS V14.01,2013-01-20 20:06:00,
2013-01-20 14:07:00,58.6,31.8,30.17,East,83,2.0,6.0,36,0.00,,---,0.00,VWS V14.01,2013-01-20 20:07:00,
2013-01-20 14:10:00,58.3,32.2,30.17,ENE,65,2.0,6.0,37,0.00,,---,0.00,VWS V14.01,2013-01-20 20:10:00,
2013-01-20 14:11:00,58.4,32.2,30.17,ENE,67,1.0,6.0,37,0.00,,---,0.00,VWS V14.01,2013-01-20 20:11:00,
2013-01-20 14:12:00,58.4,32.2,30.17,ENE,67,0.0,6.0,37,0.00,,---,0.00,VWS V14.01,2013-01-20 20:12:00,
2013-01-20 14:16:00,58.8,32.6,30.17,SSW,197,0.0,0.0,37,0.00,,---,0.00,VWS V14.01,2013-01-20 20:16:00,
2013-01-20 14:18:00,59.0,32.8,30.17,WSW,240,0.0,0.0,37,0.00,,---,0.00,VWS V14.01,2013-01-20 20:18:00,
2013-01-20 14:19:00,59.0,32.8,30.17,WSW,240,0.0,0.0,37,0.00,,---,0.00,VWS V14.01,2013-01-20 20:19:00,
2013-01-20 14:21:00,59.4,32.5,30.17,WSW,247,1.0,1.0,36,0.00,,---,0.00,VWS V14.01,2013-01-20 20:21:00,
2013-01-20 14:23:00,59.7,32.7,30.17,East,100,2.0,2.0,36,0.00,,---,0.00,VWS V14.01,2013-01-20 20:23:00,
2013-01-20 14:24:00,59.7,32.7,30.17,East,83,2.0,2.0,36,0.00,,---,0.00,VWS V14.01,2013-01-20 20:24:00,
2013-01-20 14:26:00,59.7,32.7,30.17,ENE,66,3.0,3.0,36,0.00,,---,0.00,VWS V14.01,2013-01-20 20:26:00,
2013-01-20 14:28:00,59.6,32.6,30.17,ENE,62,1.0,3.0,36,0.00,,---,0.00,VWS V14.01,2013-01-20 20:28:00,
2013-01-20 14:29:00,59.6,32.6,30.17,ENE,62,1.0,3.0,36,0.00,,---,0.00,VWS V14.01,2013-01-20 20:29:00,
2013-01-20 14:31:00,59.6,32.6,30.17,SE,127,1.0,2.0,36,0.00,,---,0.00,VWS V14.01,2013-01-20 20:31:00,
2013-01-20 14:34:00,59.4,31.8,30.17,East,82,0.0,3.0,35,0.00,,---,0.00,VWS V14.01,2013-01-20 20:34:00,
2013-01-20 14:36:00,59.3,32.4,30.17,East,82,0.0,3.0,36,0.00,,---,0.00,VWS V14.01,2013-01-20 20:36:00,
2013-01-20 14:39:00,59.5,32.5,30.17,NNE,22,1.0,3.0,36,0.00,,---,0.00,VWS V14.01,2013-01-20 20:39:00,
2013-01-20 14:41:00,59.5,31.9,30.17,ENE,73,2.0,3.0,35,0.00,,---,0.00,VWS V14.01,2013-01-20 20:41:00,
2013-01-20 14:44:00,59.4,32.5,30.17,ENE,76,0.0,3.0,36,0.00,,---,0.00,VWS V14.01,2013-01-20 20:44:00,
2013-01-20 14:46:00,59.6,32.6,30.17,ENE,76,0.0,0.0,36,0.00,,---,0.00,VWS V14.01,2013-01-20 20:46:00,
2013-01-20 14:49:00,60.1,32.4,30.16,ENE,76,1.0,2.0,35,0.00,,---,0.00,VWS V14.01,2013-01-20 20:49:00,
2013-01-20 14:51:00,60.0,33.0,30.16,ENE,76,0.0,2.0,36,0.00,,---,0.00,VWS V14.01,2013-01-20 20:51:00,
2013-01-20 14:54:00,60.0,33.0,30.16,ENE,75,0.0,2.0,36,0.00,,---,0.00,VWS V14.01,2013-01-20 20:54:00,
2013-01-20 14:57:00,60.0,33.0,30.16,East,80,2.0,2.0,36,0.00,,---,0.00,VWS V14.01,2013-01-20 20:57:00,
2013-01-20 14:59:00,59.9,32.9,30.16,North,353,1.0,3.0,36,0.00,,---,0.00,VWS V14.01,2013-01-20 20:59:00,
2013-01-20 15:02:00,59.9,32.9,30.16,North,357,1.0,1.0,36,0.00,,---,0.00,VWS V14.01,2013-01-20 21:02:00,
2013-01-20 15:04:00,59.9,33.6,30.16,North,350,0.0,2.0,37,0.00,,---,0.00,VWS V14.01,2013-01-20 21:04:00,
2013-01-20 15:05:00,59.9,33.6,30.16,North,350,0.0,2.0,37,0.00,,---,0.00,VWS V14.01,2013-01-20 21:05:00,
2013-01-20 15:07:00,60.0,33.0,30.16,WNW,299,0.0,2.0,36,0.00,,---,0.00,VWS V14.01,2013-01-20 21:07:00,
2013-01-20 15:10:00,59.9,32.2,30.16,East,84,1.0,4.0,35,0.00,,---,0.00,VWS V14.01,2013-01-20 21:10:00,
2013-01-20 15:12:00,59.8,33.5,30.16,East,84,0.0,4.0,37,0.00,,---,0.00,VWS V14.01,2013-01-20 21:12:00,
2013-01-20 15:15:00,60.0,33.7,30.16,NNW,330,0.0,4.0,37,0.00,,---,0.00,VWS V14.01,2013-01-20 21:15:00,
2013-01-20 15:17:00,60.2,33.2,30.16,WNW,283,0.0,1.0,36,0.00,,---,0.00,VWS V14.01,2013-01-20 21:17:00,
2013-01-20 15:18:00,60.3,33.3,30.16,WNW,283,0.0,1.0,36,0.00,,---,0.00,VWS V14.01,2013-01-20 21:18:00,
2013-01-20 15:20:00,60.4,33.3,30.16,WNW,283,1.0,1.0,36,0.00,,---,0.00,VWS V14.01,2013-01-20 21:20:00,
2013-01-20 15:21:00,60.5,33.4,30.16,WNW,283,1.0,1.0,36,0.00,,---,0.00,VWS V14.01,2013-01-20 21:21:00,
2013-01-20 15:22:00,60.5,33.4,30.16,WNW,293,2.0,2.0,36,0.00,,---,0.00,VWS V14.01,2013-01-20 21:22:00,
2013-01-20 15:23:00,60.5,33.4,30.16,WNW,283,2.0,3.0,36,0.00,,---,0.00,VWS V14.01,2013-01-20 21:23:00,
2013-01-20 15:25:00,60.3,33.3,30.16,West,269,0.0,3.0,36,0.00,,---,0.00,VWS V14.01,2013-01-20 21:25:00,
2013-01-20 15:26:00,60.4,33.3,30.16,West,271,0.0,3.0,36,0.00,,---,0.00,VWS V14.01,2013-01-20 21:26:00,
2013-01-20 15:28:00,60.3,32.6,30.16,WNW,291,2.0,3.0,35,0.00,,---,0.00,VWS V14.01,2013-01-20 21:28:00,
2013-01-20 15:30:00,60.0,33.0,30.16,WNW,283,1.0,3.0,36,0.00,,---,0.00,VWS V14.01,2013-01-20 21:30:00,
2013-01-20 15:31:00,60.0,33.0,30.16,WNW,283,1.0,3.0,36,0.00,,---,0.00,VWS V14.01,2013-01-20 21:31:00,
2013-01-20 15:33:00,60.1,33.1,30.16,WNW,283,0.0,1.0,36,0.00,,---,0.00,VWS V14.01,2013-01-20 21:33:00,
2013-01-20 15:34:00,60.1,33.1,30.16,WNW,283,0.0,1.0,36,0.00,,---,0.00,VWS V14.01,2013-01-20 21:34:00,
2013-01-20 15:36:00,60.3,33.3,30.16,WNW,285,1.0,1.0,36,0.00,,---,0.00,VWS V14.01,2013-01-20 21:36:00,
2013-01-20 15:38:00,60.3,33.3,30.16,NW,309,0.0,1.0,36,0.00,,---,0.00,VWS V14.01,2013-01-20 21:38:00,
2013-01-20 15:39:00,60.3,33.9,30.16,NW,308,0.0,1.0,37,0.00,,---,0.00,VWS V14.01,2013-01-20 21:39:00,
2013-01-20 15:41:00,60.2,33.2,30.16,East,94,2.0,2.0,36,0.00,,---,0.00,VWS V14.01,2013-01-20 21:41:00,
2013-01-20 15:43:00,60.0,33.0,30.16,NE,42,2.0,2.0,36,0.00,,---,0.00,VWS V14.01,2013-01-20 21:43:00,
2013-01-20 15:44:00,59.9,32.9,30.16,NE,38,1.0,2.0,36,0.00,,---,0.00,VWS V14.01,2013-01-20 21:44:00,
2013-01-20 15:46:00,59.7,32.7,30.16,NE,37,1.0,1.0,36,0.00,,---,0.00,VWS V14.01,2013-01-20 21:46:00,
2013-01-20 15:48:00,59.6,33.3,30.16,NE,37,0.0,1.0,37,0.00,,---,0.00,VWS V14.01,2013-01-20 21:48:00,
2013-01-20 15:49:00,59.6,33.3,30.16,NE,37,0.0,1.0,37,0.00,,---,0.00,VWS V14.01,2013-01-20 21:49:00,
2013-01-20 15:51:00,60.0,33.7,30.16,NE,37,0.0,1.0,37,0.00,,---,0.00,VWS V14.01,2013-01-20 21:51:00,
2013-01-20 15:53:00,60.2,34.5,30.16,NNE,30,1.0,1.0,38,0.00,,---,0.00,VWS V14.01,2013-01-20 21:53:00,
2013-01-20 15:54:00,60.2,34.5,30.16,NNE,28,1.0,1.0,38,0.00,,---,0.00,VWS V14.01,2013-01-20 21:54:00,
2013-01-20 15:58:00,60.1,33.8,30.16,NW,309,0.0,1.0,37,0.00,,---,0.00,VWS V14.01,2013-01-20 21:58:00,
2013-01-20 15:59:00,60.0,33.7,30.16,NW,309,1.0,1.0,37,0.00,,---,0.00,VWS V14.01,2013-01-20 21:59:00,
2013-01-20 16:03:00,59.7,33.4,30.16,NNW,344,1.0,1.0,37,0.00,,---,0.00,VWS V14.01,2013-01-20 22:03:00,
2013-01-20 16:04:00,59.6,33.3,30.16,NNW,343,0.0,1.0,37,0.00,,---,0.00,VWS V14.01,2013-01-20 22:04:00,
2013-01-20 16:08:00,59.4,33.1,30.16,North,357,0.0,1.0,37,0.00,,---,0.00,VWS V14.01,2013-01-20 22:08:00,
2013-01-20 16:09:00,59.4,33.1,30.16,North,357,0.0,1.0,37,0.00,,---,0.00,VWS V14.01,2013-01-20 22:09:00,
2013-01-20 16:13:00,59.2,33.0,30.16,East,86,2.0,2.0,37,0.00,,---,0.00,VWS V14.01,2013-01-20 22:13:00,
2013-01-20 16:14:00,59.2,33.0,30.16,East,86,1.0,2.0,37,0.00,,---,0.00,VWS V14.01,2013-01-20 22:14:00,
2013-01-20 16:19:00,59.0,32.8,30.16,East,85,4.0,4.0,37,0.00,,---,0.00,VWS V14.01,2013-01-20 22:19:00,
2013-01-20 16:24:00,58.8,33.3,30.16,NNW,346,1.0,4.0,38,0.00,,---,0.00,VWS V14.01,2013-01-20 22:24:00,
2013-01-20 16:29:00,58.5,33.0,30.16,North,350,1.0,4.0,38,0.00,,---,0.00,VWS V14.01,2013-01-20 22:29:00,
2013-01-20 16:35:00,58.2,32.7,30.16,North,356,0.0,1.0,38,0.00,,---,0.00,VWS V14.01,2013-01-20 22:35:00,
2013-01-20 16:38:00,58.0,33.2,30.15,North,356,0.0,1.0,39,0.00,,---,0.00,VWS V14.01,2013-01-20 22:38:00,
2013-01-20 16:40:00,58.0,33.2,30.15,North,356,0.0,1.0,39,0.00,,---,0.00,VWS V14.01,2013-01-20 22:40:00,
2013-01-20 16:43:00,57.9,33.8,30.15,NNW,342,0.0,1.0,40,0.00,,---,0.00,VWS V14.01,2013-01-20 22:43:00,
2013-01-20 16:46:00,57.8,33.7,30.15,NNW,342,0.0,1.0,40,0.00,,---,0.00,VWS V14.01,2013-01-20 22:46:00,
2013-01-20 16:48:00,57.7,33.6,30.15,NNE,27,0.0,1.0,40,0.00,,---,0.00,VWS V14.01,2013-01-20 22:48:00,
2013-01-20 16:51:00,57.6,32.8,30.15,NNE,15,1.0,1.0,39,0.00,,---,0.00,VWS V14.01,2013-01-20 22:51:00,
2013-01-20 16:53:00,57.5,33.4,30.15,North,1,1.0,3.0,40,0.00,,---,0.00,VWS V14.01,2013-01-20 22:53:00,
2013-01-20 16:54:00,57.4,33.3,30.15,North,360,1.0,3.0,40,0.00,,---,0.00,VWS V14.01,2013-01-20 22:54:00,
2013-01-20 16:56:00,57.3,33.2,30.15,North,360,1.0,3.0,40,0.00,,---,0.00,VWS V14.01,2013-01-20 22:56:00,
2013-01-20 16:58:00,57.2,33.7,30.15,North,360,0.0,3.0,41,0.00,,---,0.00,VWS V14.01,2013-01-20 22:58:00,
2013-01-20 16:59:00,57.1,33.6,30.15,North,360,0.0,3.0,41,0.00,,---,0.00,VWS V14.01,2013-01-20 22:59:00,
2013-01-20 17:01:00,57.0,33.5,30.15,ENE,66,2.0,2.0,41,0.00,,---,0.00,VWS V14.01,2013-01-20 23:01:00,
2013-01-20 17:03:00,56.8,33.4,30.15,NNE,31,1.0,2.0,41,0.00,,---,0.00,VWS V14.01,2013-01-20 23:03:00,
2013-01-20 17:04:00,56.8,33.4,30.15,NNE,29,1.0,2.0,41,0.00,,---,0.00,VWS V14.01,2013-01-20 23:04:00,
2013-01-20 17:06:00,56.5,33.7,30.15,NNE,30,1.0,2.0,42,0.00,,---,0.00,VWS V14.01,2013-01-20 23:06:00,
2013-01-20 17:08:00,56.3,33.5,30.15,NNE,24,0.0,2.0,42,0.00,,---,0.00,VWS V14.01,2013-01-20 23:08:00,
2013-01-20 17:09:00,56.3,33.5,30.15,NNE,22,0.0,2.0,42,0.00,,---,0.00,VWS V14.01,2013-01-20 23:09:00,
2013-01-20 17:11:00,56.0,33.2,30.15,NNE,18,0.0,2.0,42,0.00,,---,0.00,VWS V14.01,2013-01-20 23:11:00,
2013-01-20 17:13:00,55.7,33.6,30.15,NNE,18,0.0,2.0,43,0.00,,---,0.00,VWS V14.01,2013-01-20 23:13:00,
2013-01-20 17:14:00,55.7,33.6,30.15,NNE,18,0.0,2.0,43,0.00,,---,0.00,VWS V14.01,2013-01-20 23:14:00,
2013-01-20 17:17:00,55.4,33.3,30.15,NNE,18,0.0,1.0,43,0.00,,---,0.00,VWS V14.01,2013-01-20 23:17:00,
2013-01-20 17:19:00,55.2,33.1,30.15,NNE,17,0.0,1.0,43,0.00,,---,0.00,VWS V14.01,2013-01-20 23:19:00,
2013-01-20 17:22:00,54.9,33.4,30.15,NNE,15,0.0,1.0,44,0.00,,---,0.00,VWS V14.01,2013-01-20 23:22:00,
2013-01-20 17:24:00,54.8,33.3,30.15,NNE,15,0.0,1.0,44,0.00,,---,0.00,VWS V14.01,2013-01-20 23:24:00,
2013-01-20 17:27:00,54.4,33.5,30.15,NNE,15,0.0,1.0,45,0.00,,---,0.00,VWS V14.01,2013-01-20 23:27:00,
2013-01-20 17:29:00,54.3,32.9,30.16,NNE,17,0.0,1.0,44,0.00,,---,0.00,VWS V14.01,2013-01-20 23:29:00,
2013-01-20 17:32:00,54.0,33.2,30.15,NNE,17,0.0,1.0,45,0.00,,---,0.00,VWS V14.01,2013-01-20 23:32:00,
2013-01-20 17:34:00,53.9,33.1,30.16,NNE,17,0.0,1.0,45,0.00,,---,0.00,VWS V14.01,2013-01-20 23:34:00,
2013-01-20 17:35:00,53.8,33.0,30.16,NNE,17,0.0,1.0,45,0.00,,---,0.00,VWS V14.01,2013-01-20 23:35:00,
2013-01-20 17:37:00,53.6,32.8,30.16,NNE,17,0.0,1.0,45,0.00,,---,0.00,VWS V14.01,2013-01-20 23:37:00,
2013-01-20 17:39:00,53.5,33.0,30.16,NNE,17,0.0,1.0,46,0.00,,,0.00,weatherlink.com 1.10,2013-01-20 23:39:00,
2013-01-20 17:40:00,53.4,33.2,30.16,NNE,17,0.0,1.0,46,0.00,,---,0.00,VWS V14.01,2013-01-20 23:40:00,
2013-01-20 17:43:00,53.2,32.4,30.16,NNE,18,0.0,1.0,45,0.00,,---,0.00,VWS V14.01,2013-01-20 23:43:00,
2013-01-20 17:44:00,53.1,32.9,30.16,NNE,17,0.0,1.0,46,0.00,,---,0.00,VWS V14.01,2013-01-20 23:44:00,
2013-01-20 17:45:00,53.0,32.8,30.16,NNE,15,0.0,1.0,46,0.00,,---,0.00,VWS V14.01,2013-01-20 23:45:00,
2013-01-20 17:48:00,52.9,32.7,30.16,NNE,15,0.0,0.0,46,0.00,,---,0.00,VWS V14.01,2013-01-20 23:48:00,
2013-01-20 17:49:00,52.8,32.6,30.16,NNE,15,0.0,0.0,46,0.00,,---,0.00,VWS V14.01,2013-01-20 23:49:00,
2013-01-20 17:50:00,52.7,32.5,30.16,NNE,15,0.0,0.0,46,0.00,,---,0.00,VWS V14.01,2013-01-20 23:50:00,
2013-01-20 17:53:00,52.4,32.8,30.16,NNE,15,0.0,0.0,47,0.00,,---,0.00,VWS V14.01,2013-01-20 23:53:00,
2013-01-20 17:54:00,52.3,32.7,30.16,NNE,15,0.0,0.0,47,0.00,,---,0.00,VWS V14.01,2013-01-20 23:54:00,
2013-01-20 17:55:00,52.3,32.7,30.16,NNE,15,0.0,0.0,47,0.00,,---,0.00,VWS V14.01,2013-01-20 23:55:00,
2013-01-20 17:58:00,52.0,32.4,30.16,NNE,15,1.0,1.0,47,0.00,,---,0.00,VWS V14.01,2013-01-20 23:58:00,
2013-01-20 17:59:00,51.9,32.3,30.16,NNE,15,0.0,1.0,47,0.00,,---,0.00,VWS V14.01,2013-01-20 23:59:00,
2013-01-20 18:00:00,51.9,32.3,30.16,NNE,15,0.0,1.0,47,0.00,,---,0.00,VWS V14.01,2013-01-21 00:00:00,
2013-01-20 18:03:00,51.7,32.1,30.16,NNE,15,0.0,1.0,47,0.00,,---,0.00,VWS V14.01,2013-01-21 00:03:00,
2013-01-20 18:04:00,51.7,32.1,30.16,NNE,15,0.0,1.0,47,0.00,,---,0.00,VWS V14.01,2013-01-21 00:04:00,
2013-01-20 18:05:00,51.7,32.1,30.16,NNE,15,0.0,1.0,47,0.00,,---,0.00,VWS V14.01,2013-01-21 00:05:00,
2013-01-20 18:08:00,51.6,32.0,30.16,NNE,15,1.0,1.0,47,0.00,,---,0.00,VWS V14.01,2013-01-21 00:08:00,
2013-01-20 18:09:00,51.6,32.0,30.16,NNE,15,0.0,1.0,47,0.00,,---,0.00,VWS V14.01,2013-01-21 00:09:00,
2013-01-20 18:10:00,51.6,32.0,30.16,NNE,15,0.0,1.0,47,0.00,,---,0.00,VWS V14.01,2013-01-21 00:10:00,
2013-01-20 18:13:00,51.4,31.9,30.16,NNE,14,0.0,1.0,47,0.00,,---,0.00,VWS V14.01,2013-01-21 00:13:00,
2013-01-20 18:14:00,51.4,31.3,30.15,NE,53,3.0,3.0,46,0.00,,---,0.00,VWS V14.01,2013-01-21 00:14:00,
2013-01-20 18:15:00,51.4,31.3,30.15,NNE,15,1.0,3.0,46,0.00,,---,0.00,VWS V14.01,2013-01-21 00:15:00,
2013-01-20 18:19:00,51.3,31.2,30.16,NNE,15,0.0,1.0,46,0.00,,---,0.00,VWS V14.01,2013-01-21 00:19:00,
2013-01-20 18:20:00,51.3,31.2,30.16,NNE,14,1.0,1.0,46,0.00,,---,0.00,VWS V14.01,2013-01-21 00:20:00,
2013-01-20 18:24:00,51.1,30.5,30.16,East,79,0.0,3.0,45,0.00,,---,0.00,VWS V14.01,2013-01-21 00:24:00,
2013-01-20 18:25:00,51.0,30.4,30.16,East,79,0.0,3.0,45,0.00,,---,0.00,VWS V14.01,2013-01-21 00:25:00,
2013-01-20 18:29:00,50.8,30.8,30.16,East,79,0.0,3.0,46,0.00,,---,0.00,VWS V14.01,2013-01-21 00:29:00,
2013-01-20 18:30:00,50.8,31.0,30.15,East,79,0.0,2.0,46,0.00,,,0.00,weatherlink.com 1.10,2013-01-21 00:30:00,
2013-01-20 18:34:00,50.6,30.1,30.15,East,79,1.0,2.0,45,0.00,,---,0.00,VWS V14.01,2013-01-21 00:34:00,
2013-01-20 18:35:00,50.6,30.6,30.15,ENE,76,1.0,2.0,46,0.00,,---,0.00,VWS V14.01,2013-01-21 00:35:00,
2013-01-20 18:39:00,50.4,30.4,30.15,ENE,75,1.0,2.0,46,0.00,,---,0.00,VWS V14.01,2013-01-21 00:39:00,
2013-01-20 18:40:00,50.4,30.4,30.15,ENE,75,1.0,2.0,46,0.00,,---,0.00,VWS V14.01,2013-01-21 00:40:00,
2013-01-20 18:41:00,50.4,30.4,30.15,ENE,76,0.0,2.0,46,0.00,,---,0.00,VWS V14.01,2013-01-21 00:41:00,
2013-01-20 18:44:00,50.2,30.2,30.15,ENE,78,4.0,4.0,46,0.00,,---,0.00,VWS V14.01,2013-01-21 00:44:00,
2013-01-20 18:45:00,50.2,30.2,30.15,ENE,77,2.0,4.0,46,0.00,,---,0.00,VWS V14.01,2013-01-21 00:45:00,
2013-01-20 18:46:00,50.2,30.2,30.15,ENE,75,0.0,4.0,46,0.00,,---,0.00,VWS V14.01,2013-01-21 00:46:00,
2013-01-20 18:49:00,50.1,30.1,30.15,East,83,2.0,2.0,46,0.00,,---,0.00,VWS V14.01,2013-01-21 00:49:00,
2013-01-20 18:50:00,50.0,30.0,30.15,ENE,77,1.0,2.0,46,0.00,,---,0.00,VWS V14.01,2013-01-21 00:50:00,
2013-01-20 18:51:00,50.0,30.0,30.15,ENE,77,1.0,2.0,46,0.00,,---,0.00,VWS V14.01,2013-01-21 00:51:00,
2013-01-20 18:55:00,49.9,30.0,30.15,North,349,1.0,3.0,46,0.00,,---,0.00,VWS V14.01,2013-01-21 00:55:00,
2013-01-20 18:56:00,49.9,30.0,30.15,SE,140,1.0,3.0,46,0.00,,---,0.00,VWS V14.01,2013-01-21 00:56:00,
2013-01-20 19:00:00,49.7,29.8,30.15,East,93,1.0,3.0,46,0.00,,---,0.00,VWS V14.01,2013-01-21 01:00:00,
2013-01-20 19:01:00,49.7,29.8,30.15,East,89,1.0,1.0,46,0.00,,---,0.00,VWS V14.01,2013-01-21 01:01:00,
2013-01-20 19:02:00,49.6,29.7,30.15,East,87,1.0,2.0,46,0.00,,---,0.00,VWS V14.01,2013-01-21 01:02:00,
2013-01-20 19:05:00,49.5,29.6,30.15,East,87,0.0,2.0,46,0.00,,---,0.00,VWS V14.01,2013-01-21 01:05:00,
2013-01-20 19:06:00,49.5,29.6,30.15,East,82,1.0,2.0,46,0.00,,---,0.00,VWS V14.01,2013-01-21 01:06:00,
2013-01-20 19:07:00,49.4,30.0,30.15,East,82,1.0,2.0,47,0.00,,---,0.00,VWS V14.01,2013-01-21 01:07:00,
2013-01-20 19:10:00,49.3,29.4,30.15,ENE,62,2.0,3.0,46,0.00,,---,0.00,VWS V14.01,2013-01-21 01:10:00,
2013-01-20 19:11:00,49.3,29.4,30.15,NE,56,0.0,3.0,46,0.00,,---,0.00,VWS V14.01,2013-01-21 01:11:00,
2013-01-20 19:13:00,49.2,29.9,30.15,NE,55,1.0,3.0,47,0.00,,---,0.00,VWS V14.01,2013-01-21 01:13:00,
2013-01-20 19:15:00,49.0,29.7,30.15,NE,42,1.0,3.0,47,0.00,,---,0.00,VWS V14.01,2013-01-21 01:15:00,
2013-01-20 19:16:00,49.0,29.7,30.15,NE,46,1.0,1.0,47,0.00,,---,0.00,VWS V14.01,2013-01-21 01:16:00,
2013-01-20 19:18:00,48.9,29.6,30.15,North,8,1.0,1.0,47,0.00,,---,0.00,VWS V14.01,2013-01-21 01:18:00,
2013-01-20 19:20:00,48.8,29.5,30.15,East,89,2.0,2.0,47,0.00,,---,0.00,VWS V14.01,2013-01-21 01:20:00,
2013-01-20 19:21:00,48.8,29.5,30.15,NE,52,1.0,2.0,47,0.00,,---,0.00,VWS V14.01,2013-01-21 01:21:00,
2013-01-20 19:23:00,48.7,29.9,30.15,North,6,0.0,2.0,48,0.00,,---,0.00,VWS V14.01,2013-01-21 01:23:00,
2013-01-20 19:25:00,48.6,29.8,30.15,North,5,1.0,2.0,48,0.00,,---,0.00,VWS V14.01,2013-01-21 01:25:00,
2013-01-20 19:26:00,48.5,29.7,30.15,East,91,0.0,2.0,48,0.00,,---,0.00,VWS V14.01,2013-01-21 01:26:00,
2013-01-20 19:28:00,48.4,29.6,30.15,East,91,0.0,2.0,48,0.00,,---,0.00,VWS V14.01,2013-01-21 01:28:00,
2013-01-20 19:30:00,48.3,29.5,30.15,East,91,0.0,2.0,48,0.00,,---,0.00,VWS V14.01,2013-01-21 01:30:00,
2013-01-20 19:31:00,48.1,29.9,30.15,East,91,0.0,1.0,49,0.00,,---,0.00,VWS V14.01,2013-01-21 01:31:00,
2013-01-20 19:32:00,48.1,29.9,30.15,East,91,0.0,1.0,49,0.00,,---,0.00,VWS V14.01,2013-01-21 01:32:00,
2013-01-20 19:33:00,48.0,29.8,30.15,East,91,0.0,1.0,49,0.00,,---,0.00,VWS V14.01,2013-01-21 01:33:00,
2013-01-20 19:35:00,47.8,30.1,30.15,East,91,0.0,1.0,50,0.00,,---,0.00,VWS V14.01,2013-01-21 01:35:00,
2013-01-20 19:37:00,47.6,29.9,30.15,East,91,0.0,1.0,50,0.00,,---,0.00,VWS V14.01,2013-01-21 01:37:00,
2013-01-20 19:38:00,47.5,30.3,30.15,East,91,0.0,1.0,51,0.00,,---,0.00,VWS V14.01,2013-01-21 01:38:00,
2013-01-20 19:40:00,47.2,30.0,30.15,East,91,0.0,1.0,51,0.00,,---,0.00,VWS V14.01,2013-01-21 01:40:00,
2013-01-20 19:42:00,47.0,30.3,30.16,East,91,0.0,1.0,52,0.00,,---,0.00,VWS V14.01,2013-01-21 01:42:00,
2013-01-20 19:44:00,46.7,30.0,30.16,East,91,0.0,1.0,52,0.00,,---,0.00,VWS V14.01,2013-01-21 01:44:00,
2013-01-20 19:45:00,46.6,29.9,30.16,East,91,1.0,1.0,52,0.00,,---,0.00,VWS V14.01,2013-01-21 01:45:00,
2013-01-20 19:47:00,46.4,30.2,30.16,East,91,1.0,1.0,53,0.00,,---,0.00,VWS V14.01,2013-01-21 01:47:00,
2013-01-20 19:50:00,46.2,30.0,30.16,East,91,0.0,1.0,53,0.00,,---,0.00,VWS V14.01,2013-01-21 01:50:00,
2013-01-20 19:52:00,46.1,29.9,30.16,East,91,0.0,1.0,53,0.00,,---,0.00,VWS V14.01,2013-01-21 01:52:00,
2013-01-20 19:55:00,45.9,29.8,30.16,East,91,0.0,1.0,53,0.00,,---,0.00,VWS V14.01,2013-01-21 01:55:00,
2013-01-20 19:56:00,45.9,29.8,30.16,East,91,0.0,1.0,53,0.00,,---,0.00,VWS V14.01,2013-01-21 01:56:00,
2013-01-20 19:57:00,45.8,29.7,30.16,East,91,0.0,1.0,53,0.00,,---,0.00,VWS V14.01,2013-01-21 01:57:00,
2013-01-20 20:00:00,45.7,30.0,30.16,East,91,0.0,1.0,54,0.00,,---,0.00,VWS V14.01,2013-01-21 02:00:00,
2013-01-20 20:01:00,45.6,29.9,30.16,East,91,0.0,1.0,54,0.00,,---,0.00,VWS V14.01,2013-01-21 02:01:00,
2013-01-20 20:02:00,45.5,30.3,30.16,East,91,0.0,0.0,55,0.00,,---,0.00,VWS V14.01,2013-01-21 02:02:00,
2013-01-20 20:05:00,45.2,30.0,30.16,East,91,0.0,0.0,55,0.00,,---,0.00,VWS V14.01,2013-01-21 02:05:00,
2013-01-20 20:06:00,45.2,30.5,30.16,East,91,0.0,0.0,56,0.00,,---,0.00,VWS V14.01,2013-01-21 02:06:00,
2013-01-20 20:07:00,45.0,30.3,30.16,East,91,0.0,0.0,56,0.00,,---,0.00,VWS V14.01,2013-01-21 02:07:00,
2013-01-20 20:08:00,44.9,30.2,30.16,East,91,0.0,0.0,56,0.00,,---,0.00,VWS V14.01,2013-01-21 02:08:00,
2013-01-20 20:10:00,44.7,30.4,30.16,East,91,0.0,0.0,57,0.00,,---,0.00,VWS V14.01,2013-01-21 02:10:00,
2013-01-20 20:11:00,44.6,30.3,30.16,East,91,0.0,0.0,57,0.00,,---,0.00,VWS V14.01,2013-01-21 02:11:00,
2013-01-20 20:13:00,44.4,30.1,30.16,East,91,0.0,0.0,57,0.00,,---,0.00,VWS V14.01,2013-01-21 02:13:00,
2013-01-20 20:15:00,44.2,30.0,30.16,East,91,0.0,0.0,57,0.00,,---,0.00,VWS V14.01,2013-01-21 02:15:00,
2013-01-20 20:16:00,44.2,30.0,30.16,East,91,0.0,0.0,57,0.00,,---,0.00,VWS V14.01,2013-01-21 02:16:00,
2013-01-20 20:18:00,44.2,30.0,30.16,East,91,0.0,0.0,57,0.00,,---,0.00,VWS V14.01,2013-01-21 02:18:00,
2013-01-20 20:20:00,44.2,30.0,30.17,East,91,0.0,0.0,57,0.00,,---,0.00,VWS V14.01,2013-01-21 02:20:00,
2013-01-20 20:21:00,44.3,30.0,30.16,East,91,0.0,0.0,57,0.00,,---,0.00,VWS V14.01,2013-01-21 02:21:00,
2013-01-20 20:23:00,44.3,30.0,30.16,East,91,0.0,0.0,57,0.00,,---,0.00,VWS V14.01,2013-01-21 02:23:00,
2013-01-20 20:25:00,44.4,30.1,30.17,North,354,0.0,3.0,57,0.00,,---,0.00,VWS V14.01,2013-01-21 02:25:00,
2013-01-20 20:26:00,44.4,30.1,30.16,North,359,0.0,3.0,57,0.00,,---,0.00,VWS V14.01,2013-01-21 02:26:00,
2013-01-20 20:28:00,44.5,30.2,30.17,North,359,1.0,3.0,57,0.00,,---,0.00,VWS V14.01,2013-01-21 02:28:00,
2013-01-20 20:30:00,44.7,30.0,30.17,North,360,0.0,3.0,56,0.00,,---,0.00,VWS V14.01,2013-01-21 02:30:00,
2013-01-20 20:31:00,44.7,30.0,30.17,North,360,1.0,1.0,56,0.00,,---,0.00,VWS V14.01,2013-01-21 02:31:00,
2013-01-20 20:33:00,44.8,30.1,30.16,North,360,0.0,1.0,56,0.00,,---,0.00,VWS V14.01,2013-01-21 02:33:00,
2013-01-20 20:35:00,44.8,30.1,30.16,North,359,0.0,1.0,56,0.00,,---,0.00,VWS V14.01,2013-01-21 02:35:00,
2013-01-20 20:36:00,44.8,30.1,30.16,North,359,0.0,1.0,56,0.00,,---,0.00,VWS V14.01,2013-01-21 02:36:00,
2013-01-20 20:38:00,44.7,30.0,30.17,North,359,0.0,1.0,56,0.00,,---,0.00,VWS V14.01,2013-01-21 02:38:00,
2013-01-20 20:40:00,44.7,30.0,30.16,North,359,1.0,1.0,56,0.00,,---,0.00,VWS V14.01,2013-01-21 02:40:00,
2013-01-20 20:42:00,44.6,29.9,30.17,North,11,0.0,2.0,56,0.00,,---,0.00,VWS V14.01,2013-01-21 02:42:00,
2013-01-20 20:43:00,44.6,29.9,30.17,NNE,20,1.0,3.0,56,0.00,,---,0.00,VWS V14.01,2013-01-21 02:43:00,
2013-01-20 20:44:00,44.6,29.9,30.17,NNE,18,1.0,3.0,56,0.00,,---,0.00,VWS V14.01,2013-01-21 02:44:00,
2013-01-20 20:46:00,44.7,30.0,30.17,North,353,0.0,3.0,56,0.00,,---,0.00,VWS V14.01,2013-01-21 02:46:00,
2013-01-20 20:47:00,44.7,30.0,30.17,North,353,1.0,1.0,56,0.00,,---,0.00,VWS V14.01,2013-01-21 02:47:00,
2013-01-20 20:48:00,44.7,30.0,30.17,North,353,2.0,2.0,56,0.00,,---,0.00,VWS V14.01,2013-01-21 02:48:00,
2013-01-20 20:49:00,44.7,30.0,30.17,North,353,1.0,2.0,56,0.00,,---,0.00,VWS V14.01,2013-01-21 02:49:00,
2013-01-20 20:51:00,44.6,29.9,30.17,North,356,0.0,2.0,56,0.00,,---,0.00,VWS V14.01,2013-01-21 02:51:00,
2013-01-20 20:52:00,44.6,29.9,30.17,North,356,0.0,2.0,56,0.00,,---,0.00,VWS V14.01,2013-01-21 02:52:00,
2013-01-20 20:53:00,44.5,29.8,30.17,NNE,25,0.0,2.0,56,0.00,,---,0.00,VWS V14.01,2013-01-21 02:53:00,
2013-01-20 20:54:00,44.5,29.8,30.17,NNE,25,0.0,2.0,56,0.00,,---,0.00,VWS V14.01,2013-01-21 02:54:00,
2013-01-20 20:56:00,44.5,30.2,30.17,ENE,60,0.0,2.0,57,0.00,,---,0.00,VWS V14.01,2013-01-21 02:56:00,
2013-01-20 20:58:00,44.4,29.7,30.17,NNE,28,1.0,2.0,56,0.00,,---,0.00,VWS V14.01,2013-01-21 02:58:00,
2013-01-20 20:59:00,44.4,29.7,30.17,NNE,20,1.0,2.0,56,0.00,,---,0.00,VWS V14.01,2013-01-21 02:59:00,
2013-01-20 21:01:00,44.4,29.7,30.17,NNE,18,0.0,2.0,56,0.00,,---,0.00,VWS V14.01,2013-01-21 03:01:00,
2013-01-20 21:03:00,44.3,30.0,30.17,NNE,31,0.0,1.0,57,0.00,,---,0.00,VWS V14.01,2013-01-21 03:03:00,
2013-01-20 21:04:00,44.3,29.6,30.17,ENE,59,0.0,3.0,56,0.00,,---,0.00,VWS V14.01,2013-01-21 03:04:00,
2013-01-20 21:06:00,44.3,30.0,30.17,ENE,58,0.0,3.0,57,0.00,,---,0.00,VWS V14.01,2013-01-21 03:06:00,
2013-01-20 21:08:00,44.2,30.0,30.17,ENE,60,1.0,3.0,57,0.00,,---,0.00,VWS V14.01,2013-01-21 03:08:00,
2013-01-20 21:11:00,44.2,30.0,30.17,ENE,60,1.0,3.0,57,0.00,,---,0.00,VWS V14.01,2013-01-21 03:11:00,
2013-01-20 21:14:00,44.1,29.9,30.17,North,356,0.0,3.0,57,0.00,,---,0.00,VWS V14.01,2013-01-21 03:14:00,
2013-01-20 21:17:00,44.0,29.8,30.17,ENE,60,0.0,3.0,57,0.00,,---,0.00,VWS V14.01,2013-01-21 03:17:00,
2013-01-20 21:19:00,43.8,30.0,30.17,ENE,73,0.0,3.0,58,0.00,,---,0.00,VWS V14.01,2013-01-21 03:19:00,
2013-01-20 21:21:00,43.7,30.0,30.17,ENE,75,2.0,2.0,58,0.00,,,0.00,weatherlink.com 1.10,2013-01-21 03:21:00,
2013-01-20 21:23:00,43.7,29.9,30.17,NE,46,2.0,3.0,58,0.00,,---,0.00,VWS V14.01,2013-01-21 03:23:00,
2013-01-20 21:25:00,43.6,29.8,30.17,ENE,76,1.0,3.0,58,0.00,,---,0.00,VWS V14.01,2013-01-21 03:25:00,
2013-01-20 21:26:00,43.6,29.8,30.17,ESE,117,1.0,3.0,58,0.00,,---,0.00,VWS V14.01,2013-01-21 03:26:00,
2013-01-20 21:28:00,43.5,30.1,30.17,ESE,117,0.0,3.0,59,0.00,,---,0.00,VWS V14.01,2013-01-21 03:28:00,
2013-01-20 21:29:00,43.5,30.1,30.17,ESE,117,0.0,3.0,59,0.00,,---,0.00,VWS V14.01,2013-01-21 03:29:00,
2013-01-20 21:30:00,43.4,30.0,30.17,ESE,110,1.0,3.0,59,0.00,,---,0.00,VWS V14.01,2013-01-21 03:30:00,
2013-01-20 21:31:00,43.3,30.0,30.17,ESE,105,0.0,0.0,59,0.00,,---,0.00,VWS V14.01,2013-01-21 03:31:00,
2013-01-20 21:33:00,43.2,29.9,30.17,ESE,105,0.0,1.0,59,0.00,,---,0.00,VWS V14.01,2013-01-21 03:33:00,
2013-01-20 21:34:00,43.2,29.9,30.17,ESE,111,1.0,1.0,59,0.00,,---,0.00,VWS V14.01,2013-01-21 03:34:00,
2013-01-20 21:35:00,43.2,29.9,30.17,ESE,111,2.0,2.0,59,0.00,,---,0.00,VWS V14.01,2013-01-21 03:35:00,
2013-01-20 21:37:00,43.1,30.2,30.17,ESE,111,0.0,2.0,60,0.00,,---,0.00,VWS V14.01,2013-01-21 03:37:00,
2013-01-20 21:38:00,43.0,30.1,30.17,ESE,111,0.0,2.0,60,0.00,,---,0.00,VWS V14.01,2013-01-21 03:38:00,
2013-01-20 21:39:00,43.0,30.1,30.17,ESE,111,0.0,2.0,60,0.00,,---,0.00,VWS V14.01,2013-01-21 03:39:00,
2013-01-20 21:40:00,42.9,30.0,30.17,ESE,111,0.0,2.0,60,0.00,,---,0.00,VWS V14.01,2013-01-21 03:40:00,
2013-01-20 21:42:00,42.8,29.9,30.17,ESE,111,0.0,2.0,60,0.00,,---,0.00,VWS V14.01,2013-01-21 03:42:00,
2013-01-20 21:44:00,42.8,29.9,30.17,East,98,0.0,3.0,60,0.00,,---,0.00,VWS V14.01,2013-01-21 03:44:00,
2013-01-20 21:45:00,42.7,29.8,30.17,East,98,0.0,3.0,60,0.00,,---,0.00,VWS V14.01,2013-01-21 03:45:00,
2013-01-20 21:47:00,42.7,30.2,30.17,East,98,0.0,1.0,61,0.00,,---,0.00,VWS V14.01,2013-01-21 03:47:00,
2013-01-20 21:49:00,42.6,30.1,30.17,East,98,0.0,1.0,61,0.00,,---,0.00,VWS V14.01,2013-01-21 03:49:00,
2013-01-20 21:50:00,42.5,30.0,30.17,East,98,0.0,1.0,61,0.00,,---,0.00,VWS V14.01,2013-01-21 03:50:00,
2013-01-20 21:52:00,42.4,29.9,30.17,East,98,0.0,1.0,61,0.00,,---,0.00,VWS V14.01,2013-01-21 03:52:00,
2013-01-20 21:54:00,42.3,29.8,30.17,East,98,0.0,1.0,61,0.00,,---,0.00,VWS V14.01,2013-01-21 03:54:00,
2013-01-20 21:56:00,42.3,29.8,30.17,East,92,0.0,2.0,61,0.00,,---,0.00,VWS V14.01,2013-01-21 03:56:00,
2013-01-20 21:58:00,42.2,29.7,30.17,East,92,0.0,2.0,61,0.00,,---,0.00,VWS V14.01,2013-01-21 03:58:00,
2013-01-20 21:59:00,42.2,30.1,30.17,East,92,0.0,2.0,62,0.00,,---,0.00,VWS V14.01,2013-01-21 03:59:00,
2013-01-20 22:01:00,42.2,30.1,30.17,East,92,0.0,1.0,62,0.00,,---,0.00,VWS V14.01,2013-01-21 04:01:00,
2013-01-20 22:03:00,42.1,30.0,30.17,East,93,0.0,1.0,62,0.00,,---,0.00,VWS V14.01,2013-01-21 04:03:00,
2013-01-20 22:04:00,42.0,30.3,30.17,East,93,0.0,1.0,63,0.00,,---,0.00,VWS V14.01,2013-01-21 04:04:00,
2013-01-20 22:06:00,41.9,30.2,30.18,East,92,0.0,1.0,63,0.00,,---,0.00,VWS V14.01,2013-01-21 04:06:00,
2013-01-20 22:08:00,41.8,30.1,30.18,East,92,0.0,1.0,63,0.00,,---,0.00,VWS V14.01,2013-01-21 04:08:00,
2013-01-20 22:09:00,41.6,30.0,30.18,East,92,0.0,1.0,63,0.00,,---,0.00,VWS V14.01,2013-01-21 04:09:00,
2013-01-20 22:11:00,41.6,30.0,30.18,East,93,0.0,1.0,63,0.00,,---,0.00,VWS V14.01,2013-01-21 04:11:00,
2013-01-20 22:13:00,41.4,30.1,30.18,East,92,0.0,1.0,64,0.00,,---,0.00,VWS V14.01,2013-01-21 04:13:00,
2013-01-20 22:15:00,41.3,30.1,30.18,East,92,0.0,1.0,64,0.00,,---,0.00,VWS V14.01,2013-01-21 04:15:00,
2013-01-20 22:16:00,41.2,30.0,30.18,East,92,0.0,0.0,64,0.00,,---,0.00,VWS V14.01,2013-01-21 04:16:00,
2013-01-20 22:20:00,41.1,30.2,30.18,East,93,0.0,0.0,65,0.00,,---,0.00,VWS V14.01,2013-01-21 04:20:00,
2013-01-20 22:21:00,41.0,30.1,30.18,East,92,0.0,0.0,65,0.00,,---,0.00,VWS V14.01,2013-01-21 04:21:00,
2013-01-20 22:25:00,40.8,30.0,30.18,East,93,0.0,0.0,65,0.00,,---,0.00,VWS V14.01,2013-01-21 04:25:00,
2013-01-20 22:26:00,40.8,30.3,30.18,East,93,0.0,0.0,66,0.00,,---,0.00,VWS V14.01,2013-01-21 04:26:00,
2013-01-20 22:30:00,40.7,30.2,30.18,East,93,0.0,1.0,66,0.00,,---,0.00,VWS V14.01,2013-01-21 04:30:00,
2013-01-20 22:31:00,40.7,30.2,30.18,East,93,0.0,0.0,66,0.00,,---,0.00,VWS V14.01,2013-01-21 04:31:00,
2013-01-20 22:35:00,40.6,30.1,30.18,East,93,0.0,1.0,66,0.00,,---,0.00,VWS V14.01,2013-01-21 04:35:00,
2013-01-20 22:37:00,40.6,30.1,30.18,East,92,0.0,1.0,66,0.00,,---,0.00,VWS V14.01,2013-01-21 04:37:00,
2013-01-20 22:40:00,40.5,30.0,30.18,East,93,0.0,1.0,66,0.00,,---,0.00,VWS V14.01,2013-01-21 04:40:00,
2013-01-20 22:42:00,40.5,30.0,30.18,East,92,0.0,2.0,66,0.00,,---,0.00,VWS V14.01,2013-01-21 04:42:00,
2013-01-20 22:45:00,40.5,30.0,30.18,East,91,0.0,2.0,66,0.00,,---,0.00,VWS V14.01,2013-01-21 04:45:00,
2013-01-20 22:46:00,40.5,30.4,30.18,East,91,0.0,2.0,67,0.00,,---,0.00,VWS V14.01,2013-01-21 04:46:00,
2013-01-20 22:47:00,40.5,30.0,30.18,East,91,0.0,2.0,66,0.00,,,0.00,weatherlink.com 1.10,2013-01-21 04:47:00,
2013-01-20 22:50:00,40.4,30.3,30.18,East,91,0.0,0.0,67,0.00,,---,0.00,VWS V14.01,2013-01-21 04:50:00,
2013-01-20 22:51:00,40.3,30.2,30.18,East,91,0.0,0.0,67,0.00,,---,0.00,VWS V14.01,2013-01-21 04:51:00,
2013-01-20 22:53:00,40.3,30.2,30.18,East,91,0.0,0.0,67,0.00,,---,0.00,VWS V14.01,2013-01-21 04:53:00,
2013-01-20 22:55:00,40.1,30.0,30.18,East,91,0.0,1.0,67,0.00,,---,0.00,VWS V14.01,2013-01-21 04:55:00,
2013-01-20 22:56:00,40.1,30.0,30.18,East,91,0.0,1.0,67,0.00,,---,0.00,VWS V14.01,2013-01-21 04:56:00,
2013-01-20 22:58:00,40.0,29.9,30.18,East,91,0.0,1.0,67,0.00,,---,0.00,VWS V14.01,2013-01-21 04:58:00,
2013-01-20 23:00:00,40.0,29.9,30.18,East,91,0.0,1.0,67,0.00,,---,0.00,VWS V14.01,2013-01-21 05:00:00,
2013-01-20 23:03:00,39.9,29.9,30.18,East,79,0.0,1.0,67,0.00,,---,0.00,VWS V14.01,2013-01-21 05:03:00,
2013-01-20 23:05:00,39.9,29.9,30.18,East,79,1.0,1.0,67,0.00,,---,0.00,VWS V14.01,2013-01-21 05:05:00,
2013-01-20 23:08:00,39.9,29.9,30.18,NE,39,0.0,1.0,67,0.00,,---,0.00,VWS V14.01,2013-01-21 05:08:00,
2013-01-20 23:10:00,39.9,29.9,30.18,North,357,0.0,1.0,67,0.00,,---,0.00,VWS V14.01,2013-01-21 05:10:00,
2013-01-20 23:13:00,39.8,29.8,30.18,North,357,0.0,1.0,67,0.00,,---,0.00,VWS V14.01,2013-01-21 05:13:00,
2013-01-20 23:15:00,39.7,29.7,30.18,North,357,0.0,1.0,67,0.00,,---,0.00,VWS V14.01,2013-01-21 05:15:00,
2013-01-20 23:18:00,39.6,29.6,30.18,North,357,0.0,0.0,67,0.00,,---,0.00,VWS V14.01,2013-01-21 05:18:00,
2013-01-20 23:20:00,39.4,29.7,30.18,North,357,0.0,0.0,68,0.00,,---,0.00,VWS V14.01,2013-01-21 05:20:00,
2013-01-20 23:21:00,39.4,29.7,30.18,North,357,0.0,0.0,68,0.00,,---,0.00,VWS V14.01,2013-01-21 05:21:00,
2013-01-20 23:23:00,39.3,30.0,30.18,North,356,0.0,1.0,69,0.00,,---,0.00,VWS V14.01,2013-01-21 05:23:00,
2013-01-20 23:26:00,39.2,29.9,30.18,North,350,0.0,1.0,69,0.00,,---,0.00,VWS V14.01,2013-01-21 05:26:00,
2013-01-20 23:28:00,39.2,29.9,30.18,NNW,347,0.0,2.0,69,0.00,,---,0.00,VWS V14.01,2013-01-21 05:28:00,
2013-01-20 23:31:00,39.2,29.9,30.18,ENE,59,0.0,1.0,69,0.00,,---,0.00,VWS V14.01,2013-01-21 05:31:00,
2013-01-20 23:32:00,39.2,29.9,30.18,ENE,59,1.0,2.0,69,0.00,,---,0.00,VWS V14.01,2013-01-21 05:32:00,
2013-01-20 23:33:00,39.3,30.0,30.18,ENE,59,0.0,2.0,69,0.00,,---,0.00,VWS V14.01,2013-01-21 05:33:00,
2013-01-20 23:34:00,39.3,30.0,30.18,ENE,59,0.0,2.0,69,0.00,,---,0.00,VWS V14.01,2013-01-21 05:34:00,
2013-01-20 23:37:00,39.2,29.9,30.18,ENE,57,0.0,2.0,69,0.00,,---,0.00,VWS V14.01,2013-01-21 05:37:00,
2013-01-20 23:38:00,39.2,29.9,30.18,NE,53,1.0,2.0,69,0.00,,---,0.00,VWS V14.01,2013-01-21 05:38:00,
2013-01-20 23:39:00,39.2,29.9,30.18,NE,53,0.0,2.0,69,0.00,,---,0.00,VWS V14.01,2013-01-21 05:39:00,
2013-01-20 23:42:00,39.1,29.5,30.18,NNE,26,0.0,2.0,68,0.00,,---,0.00,VWS V14.01,2013-01-21 05:42:00,
2013-01-20 23:43:00,39.0,29.7,30.18,NNE,26,0.0,2.0,69,0.00,,---,0.00,VWS V14.01,2013-01-21 05:43:00,
2013-01-20 23:44:00,39.0,29.4,30.18,NNE,17,1.0,2.0,68,0.00,,---,0.00,VWS V14.01,2013-01-21 05:44:00,
2013-01-20 23:47:00,39.0,29.4,30.18,NNE,15,0.0,0.0,68,0.00,,---,0.00,VWS V14.01,2013-01-21 05:47:00,
2013-01-20 23:48:00,39.0,29.4,30.18,NNE,15,0.0,0.0,68,0.00,,---,0.00,VWS V14.01,2013-01-21 05:48:00,
2013-01-20 23:49:00,38.9,29.2,30.18,NNE,15,0.0,0.0,68,0.00,,---,0.00,VWS V14.01,2013-01-21 05:49:00,
2013-01-20 23:52:00,38.8,29.5,30.18,North,350,0.0,1.0,69,0.00,,---,0.00,VWS V14.01,2013-01-21 05:52:00,
2013-01-20 23:53:00,38.8,29.2,30.18,North,350,1.0,1.0,68,0.00,,---,0.00,VWS V14.01,2013-01-21 05:53:00,
2013-01-20 23:54:00,38.8,29.2,30.18,North,350,0.0,1.0,68,0.00,,---,0.00,VWS V14.01,2013-01-21 05:54:00,
2013-01-20 23:58:00,38.8,29.2,30.18,East,89,0.0,1.0,68,0.00,,---,0.00,VWS V14.01,2013-01-21 05:58:00,